     2              OBSERVATION DATA    GPS                 RINEX VERSION / TYPE
teqc 2000Feb29 20021016 17:30:37UTC                         PGM / RUN BY / DATE
                                                            COMMENT
L2: 1 -> 1; 5 -> 5; 60 -> 9                                 COMMENT
L2: 1 -> 1; 5 -> 5; 60 -> 9                                 COMMENT
L2: 1 -> 1; 5 -> 5; 60 -> 9                                 COMMENT
L2: 1 -> 1; 5 -> 5; 60 -> 9                                 COMMENT
L2: 1 -> 1; 5 -> 5; 60 -> 9                                 COMMENT
Original Marker Name: PLAI                                  COMMENT
Campaign Name: Yolo County Subsidence 2002                  COMMENT
4-Character Station Name: PLAI                              COMMENT
6-Character Antenna Code: TRMCMP                            COMMENT
Vertical Measurement Point: BPA                             COMMENT
Vertical Offset to Rinex Ref. Point: 0.0000                 COMMENT
Radial Measurement Point: RRP                               COMMENT
Radial Offset to Rinex Ref. Point: 0.0000                   COMMENT
Antenna Height from Field Measurement: 2.0000 m             COMMENT
Additional Antenna Identification Info.:                    COMMENT
Model 22020.00+GP                                           COMMENT
Original XYZ: -2630905.2887 -4242679.4100 3956395.2762      COMMENT
New XYZ position is based on association with SCEC monument COMMENT
E1F8X7N7+0011. Position of that monument is believed to be  COMMENT
valid to within 1 m horizontally; vertical accuracy         COMMENT
should be no worse than 3-times this value.                 COMMENT
                                                            COMMENT
Revised Rinex header created by UCSD GPS archive for        COMMENT
GSAC on 27-Jun-2003 (2003:178) 16:23:39 GMT                 COMMENT
For assistance contact dagnew@ucsd.edu                      COMMENT
or anderson@python.ucsd.edu                                 COMMENT
                                                            COMMENT
PLAINFIELD                                                  MARKER NAME
PLAI                                                        MARKER NUMBER
-Unknown- YOLO_COUNTY                                       OBSERVER / AGENCY
14594 TRIMBLE 4000 SSI NP 7.19; SP 3.04                     REC # / TYPE / VERS
50361 TR GEOD L1/L2 GP                                      ANT # / TYPE
 -2630903.6647 -4242677.1727  3956390.3735                  APPROX POSITION XYZ
        2.0000        0.0000        0.0000                  ANTENNA: DELTA H/E/N
     1     1     0                                          WAVELENGTH FACT L1/2
     7    C1    L1    L2    P1    P2    S1    S2            # / TYPES OF OBSERV
     0                                                      INTERVAL
  2002     7    15    18    43   15.000000                  TIME OF FIRST OBS
  2002     7    15    19    30   15.000000                  TIME OF LAST OBS
                                                            END OF HEADER
 02  7 15 18 43 15.0000000  0  8G 3G 9G14G15G17G18G21G31
  21772166.3984       9550.47657
        26.0004
  23674963.9224      -2493.92656
        12.5004
  21385710.6414     -24386.78857
        26.7504
  21996904.6334      32619.53057
        22.7504
  22723710.2734      35899.01456
        14.5004
  21860452.5554      28078.73357
        27.0004
  21143883.5944       3530.79458
        28.2504
  22917857.7194      -9630.74656
        15.7504
 02  7 15 18 43 30.0000000  0  8G 3G 9G14G15G17G18G21G31
  21775529.5164      27223.35147
        26.0004
  23674317.4534      -5891.49346
        12.5004
  21379853.9694     -55162.91347
        26.7504
  22004596.9304      73042.32147
        23.0004
  22732180.8054      80412.57246
        14.0004
  21867058.2424      62791.60647
        27.5004
  21145086.0084       9848.47948
        28.2504
  22914375.7664     -27930.14146
        15.7504
 02  7 15 18 43 45.0000000  0  8G 3G 9G14G15G17G18G21G31
  21778841.1954      44626.43847       897.04856                  21778848.3244
        26.0004         25.2504
  23673620.5634      -9555.73446     -1165.49056                  23673629.9884
        13.0004         12.2504
  21373941.6174     -86232.87147    -12938.04857                  21373948.0274
        26.7504         28.0004
  22012227.0004     113138.41247     12466.08956                  22012235.0664
        22.7504         22.0004
  22740587.7344     124592.01346     18326.76156                  22740596.8794
        13.7504         14.7504
  21873594.1024      97137.79447      7108.69556                  21873600.0314
        27.2504         24.0004
  21146220.1094      15807.76048
        28.5004
  22910841.3054     -46502.10046
        15.7504
 02  7 15 18 44  0.0000000  0  8G 3G 9G14G15G17G18G21G31
  21782110.2344      61804.35547     14282.42746                  21782117.3164
        26.0004         25.5004
  23672881.1724     -13441.68346     -4193.48946                  23672890.2344
        13.0004         12.5004
  21367981.7034    -117551.70947    -37342.29947                  21367988.1024
        26.5004         28.0004
  22019803.3204     152952.40347     43489.95346                  22019811.3164
        22.7504         22.0004
  22748939.8364     168481.92446     52526.63046                  22748949.0044
        14.0004         14.5004
  21880068.6724     131161.95647     33621.03146                  21880074.7544
        27.5004         24.2504
  21147294.5704      21453.50748      3500.19257                  21147301.0164
        28.7504         27.0004
  22907264.1024     -65301.56946    -11731.38756                  22907272.4024
        16.0004         15.2504
 02  7 15 18 44 15.0000000  0  8G 3G 9G14G15G17G18G21G31
  21785342.9694      78792.92547     27520.25346                  21785350.0744
        26.2504         25.5004
  23672105.8204     -17513.24146     -7366.10746                  23672115.0004
        12.5004         12.2504
  21361981.5234    -149083.25747    -61912.31547                  21361987.8524
        26.5004         28.0004
  22027333.1094     192520.23947     74322.00446                  22027341.3754
        22.7504         21.5004
  22757243.4924     212118.20846     86528.85346                  22757252.7544
        13.7504         14.7504
  21886488.9144     164899.79847     59910.23946                  21886494.8094
        27.2504         24.2504
  21148315.8914      26821.49448      7683.04147                  21148322.3714
        28.7504         27.0004
  22903649.8834     -84292.68146    -26529.62846                  22903658.0784
        15.7504         15.0004
 02  7 15 18 44 30.0000000  0  8G 3G 9G14G15G17G18G21G31
  21788544.6884      95617.33347     40630.16246                  21788551.8984
        26.2504         25.5004
  23671300.5944     -21744.89446    -10663.47246                  23671309.8914
        12.7504         12.0004
  21355945.6484    -180801.99947    -86628.18547                  21355952.0124
        26.2504         28.0004
  22034820.4534     231867.20547    104981.93646                  22034828.5784
        22.2504         21.7504
  22765503.5234     255526.17246    120353.17546                  22765512.7974
        13.2504         14.5004
  21892859.1484     198376.57347     85996.02046                  21892865.2194
        27.2504         24.2504
  21149289.4384      31937.10148     11669.21747                  21149295.9654
        28.7504         27.0004
  22900004.7194    -103449.80046    -41457.23546                  22900012.3404
        15.7504         15.2504
 02  7 15 18 44 45.0000000  0  8G 3G 9G14G15G17G18G21G31
  21791719.8594     112303.13347     53632.06746                  21791727.1764
        26.2504         25.2504
  23670470.1334     -26110.69446    -14065.36146                  23670478.8794
        12.7504         12.7504
  21349878.9844    -212681.93247   -111469.66147                  21349885.6054
        26.2504         28.0004
  22042270.7664     271018.85647    135489.69246                  22042278.7154
        22.5004         21.7504
  22773725.4144     298731.52746    154019.62446                  22773735.2974
        13.2504         14.5004
  21899185.0084     231617.92347    111898.34846                  21899191.0664
        27.2504         24.0004
  21150219.6174      36825.95648     15478.71047                  21150225.9224
        28.5004         27.0004
  22896331.8834    -122747.02646    -56494.01846                  22896339.7974
        15.2504         15.0004
 02  7 15 18 45  0.0000000  0  8G 3G 9G14G15G17G18G21G31
  21794873.1484     128873.85947     66544.30546                  21794880.6644
        26.2504         25.2504
  23669617.8594     -30586.87946    -17553.28546                  23669626.5824
        12.7504         12.5004
  21343786.2734    -244699.33047   -136418.25447                  21343792.6484
        26.2504         27.5004
  22049688.4924     309998.73047    165863.57746                  22049696.6994
        22.5004         21.7504
  22781912.7194     341757.67246    187546.42846                  22781921.7344
        13.2504         14.7504
  21905470.3524     264647.44347    137635.61446                  21905476.4104
        27.2504         24.0004
  21151111.2584      41511.69348     19129.92147                  21151117.5634
        28.2504         26.7504
  22892638.2424    -142160.46046    -71621.35446                  22892646.3914
        15.5004         15.0004
 02  7 15 18 45 15.0000000  0  8G 3G 9G14G15G17G18G21G31
  21798007.2274     145344.95147     79378.89946                  21798014.7544
        26.0004         25.2504
  23668748.2894     -35157.56246    -21114.83146                  23668756.9534
        12.7504         12.2504
  21337670.4534    -276838.17747   -161461.48347                  21337676.8054
        26.0004         27.7504
  22057076.5234     348822.36747    196115.72846                  22057084.5084
        22.7504         21.7504
  22790069.3914     384620.28246    220945.79746                  22790078.8874
        13.2504         14.2504
  21911718.2504     297480.54747    163219.83146                  21911724.5204
        27.2504         24.0004
  21151967.1254      46009.87948     22635.00247                  21151973.4304
        28.2504         26.7504
  22888924.6954    -161674.28746    -86826.89246                  22888932.7274
        15.2504         15.0004
 02  7 15 18 45 30.0000000  0  8G 3G 9G14G15G17G18G21G31
  21801125.4694     161729.35347     92145.94846                  21801132.7384
        26.2504         25.2504
  23667862.8364     -39809.48246    -24739.70346                  23667871.9344
        12.5004         12.2504
  21331534.1414    -309085.18147   -186588.98547                  21331540.7034
        26.0004         27.5004
  22064436.8364     387502.95147    226256.40746                  22064444.6804
        22.0004         21.5004
  22798197.6644     427332.33246    254227.84646                  22798206.9494
        13.0004         14.2504
  21917931.1334     330130.30847    188661.18446                  21917937.1914
        27.0004         24.0004
  21152790.0084      50333.39748     26003.96947                  21152796.1724
        28.5004         26.7504
  22885194.5314    -181275.30846   -102100.39246                  22885202.2704
        15.0004         14.5004
 02  7 15 18 45 45.0000000  0  8G 3G 9G14G15G17G18G21G31
  21804229.9844     178044.05447    104858.68046                  21804237.3594
        26.0004         25.2504
  23666965.5474     -44525.32146    -28414.34246                  23666974.6334
        12.5004         12.7504
  21325380.0784    -341423.04547   -211787.28947                  21325386.7344
        26.2504         27.5004
  22071773.7114     426057.56347    256298.93346                  22071781.7664
        22.2504         22.0004
  22806300.3284     469911.06746    287406.01546                  22806310.0594
        13.0004         14.2504
  21924112.8524     362613.80947    213972.97246                  21924118.8754
        27.2504         24.0004
  21153582.8134      54499.54648     29250.32147                  21153589.0354
        28.5004         26.7504
  22881450.9144    -200946.06246   -117428.23046                  22881458.6644
        15.0004         14.7504
 02  7 15 18 46  0.0000000  0  8G 3G 9G14G15G17G18G21G31
  21807323.3754     194299.42147    117525.18246                  21807330.9964
        26.2504         25.2504
  23666058.1334     -49294.42846    -32130.50846                  23666067.3364
        12.7504         12.5004
  21319211.2194    -373840.93047   -237047.94847                  21319217.5354
        26.5004         27.7504
  22079088.2894     464496.57147    286251.37646                  22079096.2734
        22.2504         21.5004
  22814378.8284     512366.79646    320488.33446                  22814388.6764
        12.7504         14.0004
  21930264.2734     394941.49447    239163.36346                  21930270.2624
        27.0004         23.5004
  21154347.6024      58518.66648     32382.09747                  21154353.9414
        28.2504         26.7504
  22877696.8834    -220675.89446   -132802.10346                  22877704.9384
        15.2504         15.0004
 02  7 15 18 46 15.0000000  0  8G 3G 9G14G15G17G18G21G31
  21810407.2114     210505.68647    130153.42246                  21810414.7624
        25.7504         25.2504
  23665142.1094     -54106.32446    -35880.02346                  23665151.6884
        12.2504         12.2504
  21313029.2664    -406328.41147   -262362.84047                  21313035.6524
        27.0004         27.7504
  22086383.1804     502830.16647    316121.66746                  22086391.3054
        22.2504         21.2504
  22822436.9614     554709.77446    353482.79546                  22822447.1254
        12.7504         14.2504
  21936388.5474     427123.42647    264240.17046                  21936394.6054
        27.0004         23.5004
  21155086.1804      62401.19847     35407.44347                  21155092.4264
        27.7504         26.7504
  22873932.8444    -240454.45646   -148213.95346                  22873941.0274
        14.7504         15.0004
 02  7 15 18 46 30.0000000  0  8G 3G 9G14G15G17G18G21G31
  21813483.6644     226672.14147    142750.63746                  21813491.2734
        25.5004         25.5004
  23664220.3364     -58951.43246    -39655.39546                  23664229.4694
        12.5004         12.2504
  21306835.6094    -438875.82047   -287724.42847                  21306841.8794
        27.2504         27.7504
  22093659.8834     541067.85847    345917.23746                  22093667.8094
        22.2504         21.5004
  22830474.6334     596949.36446    386396.69946                  22830484.9734
        12.7504         14.5004
  21942486.6094     459169.01147    289210.73746                  21942492.5514
        26.7504         23.2504
  21155800.8054      66156.64648     38333.76247                  21155807.0634
        28.0004         26.7504
  22870161.9844    -260271.93846   -163656.11746                  22870169.8754
        15.0004         14.7504
 02  7 15 18 46 45.0000000  0  8G 3G 9G14G15G17G18G21G31
  21816554.3364     242809.14247    155324.90146                  21816562.0274
        25.5004         25.2504
  23663294.0164     -63818.97946    -43448.26146                  23663302.9844
        12.5004         12.5004
  21300632.7894    -471472.35547   -313124.29847                  21300639.2584
        27.2504         28.0004
  22100919.6804     579220.09947    375646.22246                  22100927.7344
        22.5004         21.5004
  22838494.5554     639096.05246    419238.21546                  22838505.1644
        12.5004         13.7504
  21948560.7584     491088.69547    314083.20446                  21948566.9574
        26.7504         23.2504
  21156493.2504      69795.21948     41169.00947                  21156499.5784
        28.2504         26.5004
  22866385.1954    -280117.74046   -179120.35846                  22866392.8524
        15.2504         15.2504
 02  7 15 18 47  0.0000000  0  8G 3G 9G14G15G17G18G21G31
  21819621.0634     258925.39347    167882.99946                  21819628.8134
        25.2504         25.5004
  23662364.8674     -68699.84246    -47251.52946                  23662374.1414
        12.5004         12.5004
  21294422.2584    -504108.85147   -338555.30547                  21294428.5044
        27.7504         28.0004
  22108165.3594     617295.75947    405315.53146                  22108173.3554
        22.5004         21.7504
  22846499.1414     681158.61546    452014.15746                  22846509.7734
        12.5004         14.0004
  21954612.5554     522891.35247    338864.47146                  21954618.6254
        27.0004         23.5004
  21157165.3834      73325.85148     43920.15547                  21157171.8164
        28.2504         26.5004
  22862605.5314    -299982.67646   -194599.51646                  22862613.4924
        15.5004         15.0004
 02  7 15 18 47 15.0000000  0  8G 3G 9G14G15G17G18G21G31
  21822684.5314     275024.46147    180427.70946                  21822692.2934
        25.5004         25.5004
  23661434.2664     -73590.17846    -51062.13546                  23661443.7504
        12.2504         12.2504
  21288204.7504    -536781.45247   -364014.44247                  21288210.7854
        27.7504         28.0004
  22115396.8834     655298.47747    434927.99946                  22115404.9024
        22.5004         22.0004
  22854488.4924     723140.72246    484727.43246                  22854498.4574
        12.7504         14.0004
  21960642.8984     554580.50747    363557.29946                  21960649.0634
        27.0004         23.5004
  21157817.3364      76752.12348     46589.97947                  21157823.4884
        28.5004         26.7504
  22858822.4384    -319862.82546   -210090.50246                  22858830.3874
        16.0004         15.2504
 02  7 15 18 47 30.0000000  0  8G 3G 9G14G15G17G18G21G31
  21825746.7274     291114.82347    192965.63446                  21825754.4184
        25.2504         25.5004
  23660503.8834     -78481.27845    -54873.35946                  23660513.4494
        11.7504         12.2504
  21281982.4384    -569481.28848   -389494.80747                  21281988.4384
        28.0004         28.2504
  22122616.4844     693236.75647    464490.26746                  22122624.4924
        22.5004         21.7504
  22862463.7344     765050.98046    517384.70846                  22862474.0984
        12.7504         14.0004
  21966653.1174     586164.64547    388168.29846                  21966659.2344
        26.2504         23.2504
  21158451.0634      80082.72848     49185.26047                  21158457.4264
        28.5004         26.7504
  22855037.5164    -339749.50246   -225586.60246                  22855045.5124
        15.2504         15.2504
 02  7 15 18 47 45.0000000  0  8G 3G 9G14G15G17G18G21G31
  21828808.6804     307206.13147    205504.29846                  21828816.2074
        25.2504         25.5004
  23659574.8524     -83363.08546    -58677.36046                  23659583.8554
        12.5004         12.2504
  21275756.6884    -602198.31447   -414988.56447                  21275762.6884
        27.7504         28.2504
  22129825.6954     731120.26947    494009.85246                  22129833.5864
        22.7504         21.7504
  22870427.1024     806899.08546    549993.55046                  22870436.4924
        13.0004         14.0004
  21972645.0634     617653.58247    412705.10846                  21972651.1914
        26.2504         23.5004
  21159068.5164      83327.42748     51713.59247                  21159075.0434
        28.0004         27.0004
  22851254.0234    -359632.69346   -241079.97746                  22851261.6214
        15.7504         15.2504
 02  7 15 18 48  0.0000000  0  8G 3G 9G14G15G17G18G21G31
  21831871.1954     323301.13347    218045.84046                  21831878.7114
        24.7504         25.2504
  23658648.2894     -88232.46446    -62471.64946                  23658657.4574
        12.5004         12.5004
  21269527.7584    -634929.43047   -440493.30047                  21269533.9344
        27.5004         28.5004
  22137024.3914     768951.95147    523489.05046                  22137032.4574
        22.0004         21.7504
  22878379.2734     848687.75346    582556.09146                  22878388.9574
        13.2504         13.5004
  21978619.7814     649050.07747    437169.89246                  21978625.8164
        26.5004         23.7504
  21159670.0944      86489.05148     54177.19147                  21159676.5274
        28.2504         27.0004
  22847471.4614    -379509.22746   -256568.16046                  22847480.0084
        15.7504         15.2504
 02  7 15 18 48 15.0000000  0  8G 3G 9G14G15G17G18G21G31
  21834935.8054     339406.18047    230595.19746                  21834943.4844
        24.7504         25.2504
  23657724.9774     -93082.83846    -66251.14846                  23657734.2034
        12.2504         12.7504
  21263297.8524    -667667.89847   -466003.76347                  21263304.0984
        27.5004         28.5004
  22144215.3204     806738.28747    552932.91646                  22144223.6094
        21.7504         21.5004
  22886321.8984     890423.60846    615077.47146                  22886331.9804
        13.2504         13.7504
  21984577.9844     680360.36947    461567.50546                  21984584.1134
        26.5004         23.2504
  21160257.3984      89574.12548     56581.14147                  21160263.8794
        28.7504         27.0004
  22843692.1254    -399372.49446   -272046.01246                  22843700.0984
        16.0004         15.2504
 02  7 15 18 48 30.0000000  0  8G 3G 9G14G15G17G18G21G31
  21838002.8204     355523.20947    243153.90646                  21838010.4304
        24.7504         25.0004
  23656805.6884     -97911.89146    -70014.01546                  23656814.7734
        12.5004         12.5004
  21257066.8524    -700411.48247   -491518.21147                  21257073.1804
        27.0004         28.5004
  22151397.6414     844481.22447    582342.96046                  22151405.8954
        22.2504         21.2504
  22894254.0704     932108.59346    647559.21646                  22894264.2114
        13.2504         14.0004
  21990520.1564     711586.63747    485899.64246                  21990526.2854
        26.5004         23.5004
  21160830.1724      92584.74248     58927.07947                  21160836.3834
        28.5004         27.0004
  22839914.8444    -419220.17246   -287511.70846                  22839923.0744
        15.7504         15.5004
 02  7 15 18 48 45.0000000  0  8G 3G 9G14G15G17G18G21G31
  21841073.3914     371658.80147    255727.07446                  21841081.0594
        24.5004         25.0004
  23655892.6484    -102712.71246    -73754.88746                  23655900.9264
        12.7504         12.5004
  21250836.1804    -733153.18347   -517031.19547                  21250842.4264
        26.7504         28.2504
  22158572.9064     882187.51447    611724.45546                  22158580.9964
        22.2504         21.5004
  22902178.2344     973749.44246    680006.56646                  22902188.1764
        13.2504         14.0004
  21996447.3594     742735.57647    510171.52046                  21996453.5704
        26.5004         23.2504
  21161390.0784      95527.72348     61220.31347                  21161396.3244
        28.0004         27.0004
  22836142.3364    -439045.41146   -302959.92846                  22836150.6374
        16.0004         15.2504
 02  7 15 18 49  0.0000000  0  8G 3G 9G14G15G17G18G21G31
  21844148.0004     387816.02647    268317.09946                  21844155.6804
        24.5004         25.0004
  23654984.8364    -107481.97746    -77471.17546                  23654994.3444
        12.5004         13.0004
  21244606.6174    -765889.50047   -542539.98547                  21244612.8054
        26.5004         28.5004
  22165741.6484     919860.24347    641079.80146                  22165749.8914
        21.7504         21.0004
  22910094.4384    1015349.12046    712421.82946                  22910104.6954
        13.2504         14.0004
  22002360.5864     773810.19647    534385.49646                  22002366.8204
        26.2504         23.2504
  21161937.8984      98406.10848     63463.20347                  21161944.2734
        28.2504         27.0004
  22832374.3594    -458844.69846   -318387.91646                  22832382.3554
        16.0004         15.7504
 02  7 15 18 49 15.0000000  0  8G 3G 9G14G15G17G18G21G31
  21847228.0234     404000.39247    280928.27246                  21847235.4224
        24.7504         25.0004
  23654083.8754    -112213.88046    -81158.35946                  23654094.1094
        12.0004         12.7504
  21238379.3754    -798614.56347   -568040.00647                  21238385.7974
        26.5004         28.5004
  22172905.0634     957504.99847    670413.33446                  22172913.3284
        21.5004         20.7504
  22918003.6884    1056913.32146    744809.45546                  22918013.6294
        13.0004         13.7504
  22008261.1564     804816.12647    558545.94146                  22008267.1804
        26.2504         23.0004
  21162474.1884     101225.48947     65660.12247                  21162480.7504
        27.7504         27.0004
  22828613.1024    -478612.27046   -333791.20146                  22828621.0274
        16.2504         16.0004
 02  7 15 18 49 30.0000000  0  8G 3G 9G14G15G17G18G21G31
  21850313.0314     420214.23547    293562.42046                  21850320.5704
        24.5004         25.2504
  23653191.4614    -116905.66346    -84814.26646                  23653200.3484
        12.2504         12.7504
  21232154.4614    -831325.67247   -593529.15047                  21232160.7194
        26.5004         28.2504
  22180063.6644     995124.21447    699726.97746                  22180071.6134
        21.2504         20.7504
  22925906.8984    1098444.64746    777171.45846                  22925917.1214
        13.2504         13.7504
  22014148.6024     835755.74447    582654.72146                  22014154.8014
        25.7504         23.0004
  21162999.9224     103988.34147     67812.99047                  21163006.6724
        27.7504         27.2504
  22824857.7194    -498345.45846   -349167.69146                  22824865.4694
        16.5004         16.2504
 02  7 15 18 49 45.0000000  0  8G 3G 9G14G15G17G18G21G31
  21853405.0084     436461.55947    306222.65246                  21853412.5944
        24.7504         25.2504
  23652307.2274    -121553.04346    -88435.56746                  23652317.4494
        12.5004         12.7504
  21225933.1564    -864018.61447   -619004.14147                  21225939.4964
        26.2504         28.5004
  22187218.5234    1032721.98547    729023.90146                  22187226.5904
        21.2504         20.5004
  22933804.3984    1139946.95146    809510.85846                  22933814.4344
        13.0004         13.5004
  22020024.5004     866633.11447    606714.98946                  22020030.8164
        26.2504         22.7504
  21163515.8754     106698.82548     69925.04847                  21163522.5314
        28.0004         27.2504
  22821109.7504    -518040.04446   -364514.10346                  22821117.2774
        16.5004         16.2504
 02  7 15 18 50  0.0000000  0  8G 3G 9G14G15G17G18G21G31
  21856504.3054     452747.69347    318913.12546                  21856511.8204
        24.7504         25.0004
  23651432.3284    -126150.41546    -92017.91446                  23651441.9774
        12.5004         12.7504
  21219716.6024    -896687.51347   -644460.39547                  21219722.8834
        26.2504         28.2504
  22194370.1254    1070303.83747    758308.42546                  22194378.2854
        21.2504         20.5004
  22941697.9304    1181425.71346    841831.90746                  22941708.1644
        13.2504         13.7504
  22025889.5784     897453.53047    630730.87846                  22025895.9884
        26.2504         22.7504
  21164022.8834     109362.39448     72000.55847                  21164029.4454
        28.2504         27.0004
  22817370.5944    -537690.22546   -379825.92246                  22817378.2274
        16.5004         15.7504
 02  7 15 18 50 15.0000000  0  8G 3G 9G14G15G17G18G21G31
  21859611.4694     469076.42047    331636.79046                  21859618.7854
        24.5004         25.0004
  23650567.3594    -130693.61046    -95558.04546                  23650576.6684
        12.2504         12.7504
  21213505.0704    -929328.25947   -669894.71447                  21213511.5514
        26.2504         28.5004
  22201519.0944    1107873.61347    787583.54046                  22201527.2304
        20.5004         20.5004
  22949587.3914    1222884.77446    874137.60346                  22949597.0514
        13.2504         13.5004
  22031744.4304     928220.86047    654705.39746                  22031750.5594
        26.2504         22.7504
  21164521.2734     111982.87648     74042.49647                  21164527.5904
        28.2504         27.2504
  22813640.7504    -557291.95546   -395099.96646                  22813648.6884
        17.0004         16.0004
 02  7 15 18 50 30.0000000  0  8G 3G 9G14G15G17G18G21G31
  21862727.1884     485449.34347    344394.89946                  21862734.5634
        24.7504         25.0004
  23649713.5704    -135180.60846    -99054.39346                  23649722.8794
        12.0004         12.2504
  21207299.3984    -961938.84947   -695305.53247                  21207305.6564
        26.2504         28.5004
  22208666.7274    1145433.11447    816850.64946                  22208675.0044
        20.7504         20.2504
  22957473.0864    1264325.99046    906429.39746                  22957483.2974
        13.2504         13.7504
  22037589.3834     958936.97847    678640.02146                  22037595.5004
        26.2504         22.7504
  21165012.0784     114562.07147     76052.25847                  21165018.4064
        27.7504         27.0004
  22809920.1884    -576843.08446   -410334.60146                  22809928.0084
        16.7504         16.5004
 02  7 15 18 50 45.0000000  0  8G 3G 9G14G15G17G18G21G31
  21865851.6254     501869.54947    357189.85046                  21865859.0704
        24.2504         24.7504
  23648871.4064    -139608.17946   -102504.39246                  23648881.2774
        12.2504         12.2504
  21201100.2034    -994515.95147   -720690.25847                  21201106.4494
        26.2504         28.7504
  22215813.0164    1182985.49647    846112.21046                  22215821.3284
        20.5004         20.0004
  22965356.5234    1305752.36446    938709.62046                  22965366.1604
        13.2504         13.7504
  22043425.5864     989605.02547    702537.18146                  22043431.5164
        26.2504         22.5004
  21165495.6954     117103.35447     78032.48247                  21165502.0354
        27.7504         26.7504
  22806210.2504    -596340.35246   -425527.25046                  22806218.1524
        16.7504         16.5004
 02  7 15 18 51  0.0000000  0  8G 3G 9G14G15G17G18G21G31
  21868986.1804     518342.15347    370025.62546                  21868993.9304
        24.0004         24.7504
  23648041.2194    -143970.82546   -105903.83246                  23648050.6564
        12.2504         12.7504
  21194908.3204   -1027053.99647   -746044.54247                  21194914.6484
        26.2504         28.7504
  22222958.0164    1220535.89847    875372.22046                  22222966.8674
        20.2504         20.5004
  22973237.4304    1347169.28546    970982.48746                  22973247.2194
        13.0004         13.5004
  22049253.3594    1020230.06847    726400.83146                  22049259.2074
        26.5004         22.5004
  21165973.0784     119611.77447     79987.10047                  21165979.5124
        27.7504         27.0004
  22802510.9774    -615778.33946   -440673.71546                  22802519.1134
        16.7504         16.5004
 02  7 15 18 51 15.0000000  0  8G 3G 9G14G15G17G18G21G31
  21872131.4064     534868.87347    382903.57046                  21872138.8404
        24.2504         24.7504
  23647223.5784    -148266.51346   -109251.10746                  23647232.6294
        12.2504         12.5004
  21188724.6094   -1059550.79647   -771366.70047                  21188731.0314
        26.5004         28.7504
  22230103.8754    1258086.13747    904632.11346                  22230112.6684
        20.5004         20.2504
  22981117.7424    1388578.46146   1003249.31546                  22981128.0824
        13.0004         13.7504
  22055073.1414    1050813.86447    750232.35046                  22055079.0944
        26.0004         22.7504
  21166444.5084     122089.19248     81917.55347                  21166451.0234
        28.0004         27.0004
  22798823.7114    -635154.95146   -455772.35246                  22798832.0004
        16.5004         16.5004
 02  7 15 18 51 30.0000000  0  8G 3G 9G14G15G17G18G21G31
  21875286.8834     551451.17247    395824.82546                  21875294.1414
        24.5004         24.5004
  23646418.7974    -152493.39045   -112544.75046                  23646428.2704
        11.7504         12.7504
  21182549.0004   -1092004.49247   -796655.26847                  21182555.3984
        26.7504         29.2504
  22237249.8754    1295637.83247    933893.13446                  22237258.7734
        20.7504         20.2504
  22988996.5864    1429981.34446   1035511.23146                  22989007.1024
        13.0004         13.5004
  22060885.4844    1081358.22147    774033.12546                  22060891.7074
        26.0004         22.5004
  21166910.2344     124537.34047     83825.20147                  21166916.7034
        27.7504         27.0004
  22795148.2424    -654468.31846   -470821.71346                  22795156.5904
        16.2504         16.7504
 02  7 15 18 51 45.0000000  0  8G 3G 9G14G15G17G18G21G31
  21878453.4924     568091.66647    408791.42446                  21878460.5864
        24.7504         24.7504
  23645629.3524    -156648.58846   -115782.54446                  23645639.1994
        12.7504         12.2504
  21176381.9534   -1124412.14447   -821907.95947                  21176388.2114
        27.2504         29.2504
  22244396.6254    1333193.71447    963157.41846                  22244404.9734
        21.0004         20.5004
  22996874.1804    1471380.82146   1067770.50746                  22996884.6134
        12.5004         13.7504
  22066690.7664    1111865.72147    797805.19146                  22066697.0124
        26.2504         22.7504
  21167371.0164     126959.04347     85712.24147                  21167377.6024
        27.5004         27.0004
  22791485.6484    -673715.53546   -485819.52646                  22791493.9614
        16.2504         16.7504
 02  7 15 18 52  0.0000000  0  8G 3G 9G14G15G17G18G21G31
  21881631.1334     584788.03347    421801.55746                  21881638.3324
        25.0004         24.7504
  23644851.1804    -160734.11546   -118966.04146                  23644860.8874
        12.5004         12.5004
  21170223.3284   -1156775.70247   -847126.28047                  21170229.7034
        27.2504         29.5004
  22251543.5634    1370751.47847    992423.17046                  22251551.8054
        20.5004         20.5004
  23004751.6414    1512774.65046   1100025.36546                  23004761.6294
        12.7504         13.5004
  22072488.9224    1142334.21747    821546.85746                  22072495.1454
        26.2504         22.5004
  21167826.3054     129351.90447     87576.80447                  21167832.8324
        27.2504         27.0004
  22787835.6484    -692898.63046   -500767.37546                  22787843.6914
        16.7504         16.5004
 02  7 15 18 52 15.0000000  0  8G 3G 9G14G15G17G18G21G31
  21884820.0234     601547.27847    434860.69246                  21884827.1414
        24.7504         24.7504
  23644088.3364    -164742.55146   -122089.47946                  23644097.6334
        12.2504         12.2504
  21164074.5634   -1189087.82547   -872304.53147                  21164081.0204
        27.2504         29.7504
  22258692.5704    1408318.31347   1021695.99546                  22258701.1414
        20.5004         20.2504
  23012628.6254    1554169.95746   1132281.39246                  23012639.1524
        12.7504         13.0004
  22078280.6724    1172770.68147    845263.55746                  22078286.9884
        26.0004         22.5004
  21168277.7194     131723.16747     89424.53847                  21168284.2464
        27.2504         26.7504
  22784198.2424    -712010.12646   -515659.42846                  22784206.5084
        16.5004         16.5004
 02  7 15 18 52 30.0000000  0  8G 3G 9G14G15G17G18G21G31
  21888021.7194     618371.48447    447970.44246                  21888028.9304
        25.0004         24.7504
  23643340.2734    -168671.53245   -125150.99645                  23643348.9494
        11.7504         11.7504
  21157935.9534   -1221346.13647   -897440.85047                  21157942.3054
        27.5004         29.7504
  22265842.8754    1445896.28447   1050977.48846                  22265851.4804
        20.5004         20.2504
  23020506.6884    1595568.78346   1164540.14846                  23020516.6524
        12.7504         13.2504
  22084066.9694    1203177.13447    868956.88146                  22084072.9574
        26.0004         22.5004
  21168725.1954     134074.94347     91257.08947                  21168731.6174
        27.7504         27.0004
  22780575.7584    -731047.82646   -530493.98446                  22780583.9064
        16.7504         16.5004
 02  7 15 18 52 45.0000000  0  8G 3G 9G14G15G17G18G21G31
  21891236.1174     635262.30247    461132.10446                  21891243.2234
        25.2504         24.5004
  23642608.8204    -172519.10346   -128149.08746                  23642617.4614
        12.0004         12.5004
  21151808.0634   -1253548.46047   -922533.54347                  21151814.3794
        27.2504         29.7504
  22272996.4224    1483487.20547   1080269.07846                  22273004.9694
        20.5004         20.2504
  23028386.3284    1636973.03846   1196803.13546                  23028396.5864
        12.7504         13.7504
  22089847.7584    1233555.42147    892628.25246                  22089853.7344
        25.7504         22.5004
  21169169.5234     136409.23247     93076.01347                  21169176.0514
        27.7504         27.0004
  22776967.5704    -750009.60246   -545269.38046                  22776975.3094
        17.0004         17.0004
 02  7 15 18 53  0.0000000  0  8G 3G 9G14G15G17G18G21G31
  21894462.9844     652219.72147    474345.66546                  21894470.2664
        25.2504         24.7504
  23641891.6884    -176284.95146   -131083.47846                  23641900.8204
        12.0004         13.0004
  21145690.9614   -1285694.42647   -947582.31947                  21145697.1374
        27.7504         29.5004
  22280152.1644    1521091.14247   1109570.81346                  22280160.5354
        20.2504         20.0004
  23036265.8594    1678382.67646   1229070.32646                  23036276.3874
        12.7504         13.7504
  22095623.2974    1263905.61647    916277.73646                  22095629.3674
        25.7504         22.2504
  21169610.2894     138725.98147     94881.26347                  21169616.9344
        27.7504         27.0004
  22773374.0394    -768895.08646   -559985.32046                  22773381.5314
        17.0004         16.5004
 02  7 15 18 53 15.0000000  0  8G 3G 9G14G15G17G18G21G31
  21897702.8674     669246.34847    487613.15046                  21897710.0664
        25.0004         24.7504
  23641191.3594    -179966.13946   -133951.91546                  23641200.7034
        12.5004         12.7504
  21139584.9534   -1317780.97847   -972584.80247                  21139591.1994
        27.5004         29.7504
  22287311.2894    1558710.94147   1138884.90846                  22287319.6254
        20.7504         20.2504
  23044148.2114    1719800.58746   1261343.96046                  23044158.5864
        13.0004         13.2504
  22101393.8984    1294230.63147    939907.59746                  22101400.2734
        25.2504         22.5004
  21170048.2034     141028.10347     96675.12347                  21170054.9774
        27.2504         27.0004
  22769795.0944    -787701.34346   -574639.52746                  22769803.2074
        17.2504         17.0004
 02  7 15 18 53 30.0000000  0  8G 3G 9G14G15G17G18G21G31
  21900956.6174     686345.21547    500936.92046                  21900963.8634
        25.0004         24.7504
  23640507.8594    -183559.29046   -136751.75646                  23640516.5004
        12.5004         12.7504
  21133491.0164   -1349804.83947   -997538.43647                  21133497.2384
        27.7504         30.0004
  22294473.5164    1596349.69747   1168213.76146                  22294482.0274
        20.5004         20.2504
  23052031.1334    1761229.67546   1293626.29446                  23052041.1454
        13.0004         13.2504
  22107160.4694    1324533.41647    963520.13346                  22107166.7034
        25.5004         22.0004
  21170484.1884     143318.71547     98460.00947                  21170491.1174
        27.2504         27.0004
  22766232.0634    -806425.01346   -589229.38946                  22766240.0824
        17.2504         17.0004
 02  7 15 18 53 45.0000000  0  8G 3G 9G14G15G17G18G21G31
  21904224.0554     703515.22447    514316.13346                  21904231.4184
        24.7504         24.7504
  23639840.2584    -187065.30846   -139483.68946                  23639849.4964
        12.2504         12.2504
  21127408.8914   -1381766.70947  -1022443.76447                  21127415.1484
        27.7504         29.7504
  22301639.5084    1634006.42747   1197556.62846                  22301647.8204
        20.2504         19.7504
  23059917.2114    1802669.10146   1325916.70546                  23059926.6954
        12.5004         13.0004
  22112922.1724    1354812.98547    987114.58346                  22112928.3834
        25.5004         22.2504
  21170917.8134     145596.90847    100235.21447                  21170924.6954
        27.2504         27.5004
  22762684.3834    -825066.97646   -603755.57746                  22762692.2504
        17.0004         17.0004
 02  7 15 18 54  0.0000000  0  8G 3G 9G14G15G17G18G21G31
  21907505.9064     720762.38547    527755.46046                  21907513.5164
        24.2504         24.7504
  23639191.0004    -190477.87546   -142142.80346                  23639199.8404
        12.5004         12.7504
  21121339.6804   -1413660.25847  -1047295.85447                  21121345.8674
        27.7504         30.0004
  22308810.0704    1671687.10047   1226918.15346                  22308818.6524
        20.2504         20.0004
  23067805.6094    1844124.86246   1358219.83146                  23067815.5634
        12.5004         13.2504
  22118681.0784    1385075.30747   1010695.59046                  22118687.3484
        25.5004         22.0004
  21171350.4064     147868.78348    102005.51147                  21171357.0634
        28.0004         27.2504
  22759153.6884    -843620.85046   -618213.12046                  22759161.8364
        17.0004         17.0004
 02  7 15 18 54 15.0000000  0  8G 3G 9G14G15G17G18G21G31
  21910802.3834     738085.40247    541253.90146                  21910809.8054
        24.2504         24.7504
  23638559.2344    -193797.90746   -144729.82946                  23638568.2154
        12.5004         12.5004
  21115283.2114   -1445486.34547  -1072095.37647                  21115289.1884
        27.5004         29.5004
  22315984.7114    1709390.59147   1256297.45446                  22315993.0234
        20.2504         19.7504
  23075697.8444    1885595.77546   1390534.78046                  23075707.7034
        12.2504         13.0004
  22124436.4774    1415319.46447   1034262.44246                  22124442.6174
        25.2504         22.2504
  21171781.0784     150133.23048    103770.01847                  21171787.7464
        28.0004         27.2504
  22755639.7974    -862087.62046   -632602.79146                  22755647.5824
        17.0004         17.0004
 02  7 15 18 54 30.0000000  0  8G 3G 9G14G15G17G18G21G31
  21914113.0634     755483.21647    554810.61946                  21914120.8594
        24.0004         24.5004
  23637945.3204    -197026.11346   -147245.29746                  23637953.8444
        12.5004         12.5004
  21109239.7034   -1477245.60447  -1096842.82847                  21109245.7854
        27.7504         29.7504
  22323163.6564    1747116.04346   1285693.86746                  22323172.2734
        19.7504         19.5004
  23083591.6024    1927080.94945   1422860.81546                  23083601.3204
        11.7504         13.0004
  22130187.8204    1445544.44247   1057814.35446                  22130194.0554
        25.0004         22.0004
  21172210.4534     152389.35347    105528.03147                  21172217.0744
        27.7504         27.2504
  22752142.1884    -880467.96546   -646925.13146                  22752150.0664
        17.5004         17.0004
 02  7 15 18 54 45.0000000  0  8G 3G 9G14G15G17G18G21G31
  21917438.5554     772958.86747    568427.98946                  21917446.3874
        23.5004         24.7504
  23637348.3134    -200159.16045   -149686.61046                  23637357.4694
        11.7504         12.5004
  21103209.3524   -1508934.60747  -1121535.53847                  21103215.3754
        27.7504         29.5004
  22330347.2584    1784866.65947   1315109.88846                  22330355.5594
        20.0004         19.2504
  23091489.2734    1968583.58245   1455200.47546                  23091499.5554
        11.7504         13.2504
  22135936.3984    1475753.22247   1081353.64246                  22135942.8674
        24.7504         21.7504
  21172638.7034     154640.27247    107281.99747                  21172645.3594
        27.5004         27.2504
  22748661.3834    -898758.46246   -661177.44346                  22748669.3554
        17.5004         16.7504
 02  7 15 18 55  0.0000000  0  8G 3G 9G14G15G17G18G21G31
  21920779.6724     790517.59247    582110.09346                  21920787.5984
        23.5004         24.7504
  23636771.4844    -203191.48745   -152049.45846                  23636780.8054
        11.7504         12.2504
  21097193.5944   -1540547.81247  -1146169.17247                  21097199.7114
        27.2504         29.2504
  22337536.8204    1822647.66846   1344549.59546                  22337545.2384
        19.7504         19.2504
  23099391.8984    2010108.97045   1487557.85046                  23099402.6844
        11.7504         13.0004
  22141683.1954    1505951.19747   1104884.51146                  22141689.3834
        25.0004         21.7504
  21173067.0234     156891.46147    109036.16747                  21173073.7274
        27.2504         27.2504
  22745199.1884    -916953.59846   -675355.45746                  22745207.0314
        17.5004         17.2504
 02  7 15 18 55 15.0000000  0  8G 3G 9G14G15G17G18G21G31
  21924136.5394     808156.88247    595854.97146                  21924144.4774
        23.7504         24.5004
  23636212.6484    -206125.29045   -154335.51946                  23636221.9344
        11.7504         12.7504
  21091191.8914   -1572087.38847  -1170745.44947                  21091197.9264
        27.5004         29.2504
  22344731.9534    1860456.73647   1374011.15946                  22344740.2194
        20.0004         19.2504
  23107297.6334    2051654.71345   1519931.09246                  23107307.7734
        11.5004         13.0004
  22147426.9224    1536136.03047   1128405.14446                  22147433.2274
        24.7504         21.7504
  21173495.1254     159140.74547    110788.85147                  21173501.8284
        27.5004         27.2504
  22741754.3524    -935055.35646   -689460.71446                  22741762.4304
        17.5004         17.0004
 02  7 15 18 55 30.0000000  0  8G 3G 9G14G15G17G18G21G31
  21927507.7344     825871.98747    609658.93246                  21927515.5784
        24.0004         24.5004
  23635672.1644    -208964.96545   -156548.22746                  23635680.9694
        11.7504         12.5004
  21085203.2034   -1603557.59947  -1195267.66847                  21085209.1914
        27.0004         29.0004
  22351931.0784    1898289.24746   1403490.99446                  22351939.3914
        19.7504         19.2504
  23115206.6724    2093216.20945   1552316.60146                  23115217.5394
        11.7504         12.7504
  22153167.4144    1566303.14647   1151911.96746                  22153173.5904
        24.5004         21.7504
  21173921.8834     161383.43747    112536.40347                  21173928.4694
        27.7504         27.5004
  22738326.8594    -953068.34546   -703496.79046                  22738334.4454
        17.5004         16.7504
 02  7 15 18 55 45.0000000  0  8G 3G 9G14G15G17G18G21G31
  21930894.7114     843672.95747    623529.79646                  21930902.7194
        23.5004         24.7504
  23635152.5784    -211700.14345   -158679.53746                  23635161.2894
        11.7504         12.2504
  21079229.6414   -1634947.96347  -1219727.66747                  21079235.5944
        27.2504         29.0004
  22359136.7584    1936155.38446   1432997.03646                  22359144.9534
        19.7504         19.2504
  23123120.7274    2134803.49045   1584722.22846                  23123131.7344
        11.5004         12.7504
  22158906.7114    1596462.68847   1175412.88846                  22158912.8404
        24.0004         21.5004
  21174349.5944     163629.67648    114286.71747                  21174356.1214
        28.0004         27.2504
  22734917.8054    -970982.10746   -717455.55246                  22734926.2344
        17.5004         17.0004
 02  7 15 18 56  0.0000000  0  8G 3G 9G14G15G17G18G21G31
  21934298.1094     861556.31747    637464.86446                  21934306.2344
        23.5004         24.5004
  23634651.0394    -214333.97145   -160731.84846                  23634660.5824
        11.7504         12.7504
  21073270.9064   -1666261.64047  -1244127.91247                  21073277.0124
        26.7504         29.0004
  22366348.5634    1974051.82046   1462526.68246                  22366356.7114
        19.7504         19.5004
  23131038.7194    2176413.40845   1617145.45346                  23131049.0594
        11.7504         13.0004
  22164643.4694    1626611.40547   1198905.37046                  22164649.9384
        23.7504         21.7504
  21174776.8594     165876.30647    116037.33947                  21174783.3404
        27.7504         27.2504
  22731527.2974    -988799.74346   -731339.40646                  22731535.2584
        17.5004         17.0004
 02  7 15 18 56 15.0000000  0  8G 3G 9G14G15G17G18G21G31
  21937716.9454     879522.98747    651464.84546                  21937725.1994
        23.5004         24.2504
  23634169.4304    -216865.28046   -162704.28546                  23634178.1294
        12.2504         12.5004
  21067326.9384   -1697497.27147  -1268467.34047                  21067332.9024
        26.7504         29.0004
  22373565.8984    2011979.61547   1492080.76846                  22373574.1294
        20.0004         19.2504
  23138961.3594    2218046.83145   1649587.02546                  23138971.5124
        11.5004         12.5004
  22170378.9534    1656750.18047   1222390.10946                  22170385.1884
        24.2504         21.7504
  21175204.6414     168124.29847    117789.02847                  21175211.2974
        27.2504         27.2504
  22728154.8204   -1006520.08946   -745147.45446                  22728162.7934
        17.0004         17.0004
 02  7 15 18 56 30.0000000  0  8G 3G 9G14G15G17G18G21G31
  21941152.8204     897578.54647    665534.09346                  21941160.8754
        23.5004         24.5004
  23633708.5704    -219288.25646   -164592.30646                  23633717.6684
        12.2504         12.7504
  21061398.8984   -1728648.96547  -1292741.36147                  21061404.9104
        26.5004         29.0004
  22380790.2194    2049944.29746   1521663.59546                  22380798.7304
        19.5004         19.2504
  23146889.2504    2259709.42845   1682051.32246                  23146898.7114
        11.2504         12.2504
  22176113.3834    1686884.62647   1245871.47346                  22176119.5594
        24.2504         21.7504
  21175633.6724     170379.33847    119546.19747                  21175640.5664
        27.0004         27.2504
  22724802.8524   -1024137.25546   -758875.10646                  22724810.5204
        17.2504         17.0004
 02  7 15 18 56 45.0000000  0  8G 3G 9G14G15G17G18G21G31
  21944606.0554     915724.96747    679674.13946                  21944614.0744
        23.2504         24.2504
  23633268.3134    -221600.55446   -166394.08446                  23633277.5634
        12.2504         12.2504
  21055487.2424   -1759714.44847  -1316948.20547                  21055493.2544
        26.5004         28.7504
  22388022.4064    2087948.13246   1551276.92146                  22388031.1294
        19.7504         19.2504
  23154823.5864    2301403.30445   1714539.97846                  23154834.3714
        11.0004         12.0004
  22181847.4304    1717016.81447   1269351.07646                  22181853.8754
        23.7504         21.7504
  21176064.3524     172643.66347    121310.60647                  21176071.2704
        27.0004         27.2504
  22721470.0314   -1041648.89946   -772520.52246                  22721477.4534
        17.2504         17.0004
 02  7 15 18 57  0.0000000  0  8G 3G 9G14G15G17G18G21G31
  21948076.4454     933961.34547    693884.28346                  21948084.3954
        23.7504         24.5004
  23632849.2584    -223802.66546   -168110.01046                  23632858.1914
        12.5004         12.7504
  21049591.8754   -1790694.14647  -1341088.20547                  21049598.1334
        26.2504         28.7504
  22395261.2274    2125990.29046   1580920.11646                  22395269.9384
        19.5004         19.2504
  23162763.5704    2343127.74845   1747052.46146                  23162774.1214
        11.2504         12.2504
  22187580.7504    1747146.17347   1292828.47846                  22187587.3484
        23.5004         21.7504
  21176497.1174     174916.55247    123081.69047                  21176503.7974
        27.5004         27.5004
  22718157.7274   -1059055.59046   -786084.15246                  22718165.3244
        17.2504         16.7504
 02  7 15 18 57 15.0000000  0  8G 3G 9G14G15G17G18G21G31
  21951563.8674     952286.53147    708163.63046                  21951571.6994
        23.7504         24.5004
  23632451.2424    -225895.50346   -169740.78546                  23632460.4344
        12.2504         13.0004
  21043712.7424   -1821588.88247  -1365162.00147                  21043718.9184
        26.2504         29.0004
  22402507.3364    2164069.73246   1610592.36246                  22402515.9304
        19.2504         19.2504
  23170709.4534    2384881.63645   1779587.89446                  23170720.3794
        11.5004         12.0004
  22193313.3594    1777271.50947   1316302.74346                  22193320.0274
        23.2504         21.5004
  21176931.1024     177197.11747    124858.75547                  21176937.8164
        27.5004         27.5004
  22714865.3444   -1076358.09446   -799566.61746                  22714873.1884
        17.5004         17.0004
 02  7 15 18 57 30.0000000  0  8G 3G 9G14G15G17G18G21G31
  21955068.0864     970702.49047    722513.70846                  21955075.8714
        23.7504         24.5004
  23632074.0864    -227876.82646   -171284.66446                  23632083.3594
        12.2504         12.7504
  21037850.3524   -1852396.32047  -1389167.77147                  21037856.5164
        26.5004         28.7504
  22409761.3594    2202188.47846   1640295.23246                  22409770.4804
        19.0004         19.2504
  23178660.4844    2426667.17845   1812147.97846                  23178671.1294
        11.2504         12.5004
  22199045.5164    1807394.96647   1339775.53746                  22199052.2664
        23.2504         21.5004
  21177366.7894     179487.45047    126643.42847                  21177373.5744
        27.0004         27.2504
  22711592.9614   -1093554.15546   -812966.12346                  22711600.4304
        17.2504         17.2504
 02  7 15 18 57 45.0000000  0  8G 3G 9G14G15G17G18G21G31
  21958590.5314     989211.40847    736936.22046                  21958598.2234
        23.7504         24.5004
  23631718.6414    -229744.04846   -172739.62646                  23631727.9844
        12.2504         12.5004
  21032005.0234   -1883113.82047  -1413103.46047                  21032011.2704
        26.2504         29.2504
  22417023.0634    2240348.93846   1670030.61246                  22417031.7034
        19.2504         19.2504
  23186617.9614    2468486.52845   1844734.44145                  23186628.2074
        11.2504         11.7504
  22204778.2504    1837518.77347   1363248.61246                  22204784.6484
        23.2504         21.2504
  21177804.8284     181789.74047    128437.42147                  21177811.6254
        27.0004         27.2504
  22708341.2814   -1110641.27646   -826280.75046                  22708348.6454
        17.0004         17.0004
 02  7 15 18 58  0.0000000  0  8G 3G 9G14G15G17G18G21G31
  21962130.0944    1007812.80547    751430.79846                  21962137.7974
        23.7504         24.2504
  23631384.5634    -231497.48446   -174105.94046                  23631394.6454
        12.2504         12.7504
  21026176.7504   -1913741.53647  -1436969.18647                  21026182.9964
        26.2504         29.2504
  22424292.5784    2278550.60246   1699798.10146                  22424301.6994
        19.2504         19.2504
  23194583.0084    2510339.21545   1877346.83946                  23194593.4184
        11.5004         12.5004
  22210510.4844    1867642.58247   1386721.68646                  22210516.8364
        23.2504         21.2504
  21178245.3524     184103.74447    130240.53647                  21178252.0664
        27.0004         27.0004
  22705110.5004   -1127619.55946   -839510.56146                  22705118.4614
        16.7504         16.7504
 02  7 15 18 58 15.0000000  0  8G 3G 9G14G15G17G18G21G31
  21965687.7894    1026507.88047    765998.36646                  21965695.3524
        24.0004         24.2504
  23631072.9924    -233135.61445   -175382.39846                  23631081.5394
        11.7504         13.0004
  21020365.7974   -1944277.77947  -1460763.63647                  21020372.0664
        26.2504         29.5004
  22431570.4774    2316794.87946   1729598.78846                  22431579.2464
        19.5004         19.2504
  23202553.9844    2552226.82945   1909986.48346                  23202564.3244
        11.7504         12.2504
  22216243.1414    1897767.77147   1410195.83846                  22216249.5634
        23.2504         21.0004
  21178688.1884     186430.88047    132053.88847                  21178694.8674
        27.0004         27.2504
  22701900.3444   -1144487.52746   -852654.42146                  22701908.0944
        16.7504         17.0004
 02  7 15 18 58 30.0000000  0  8G 3G 9G14G15G17G18G21G31
  21969263.2734    1045298.97947    780640.77246                  21969270.7894
        23.2504         24.0004
  23630783.5554    -234655.75746   -176566.92846                  23630792.6174
        12.0004         12.5004
  21014573.1414   -1974719.89547  -1484484.74047                  21014579.3874
        26.5004         29.5004
  22438856.7114    2355084.26546   1759434.62646                  22438865.4224
        19.2504         19.2504
  23210531.7114    2594151.66445   1942655.12946                  23210540.8674
        11.5004         12.5004
  22221976.5944    1927896.73647   1433672.93646                  22221983.2624
        23.2504         21.0004
  21179134.0394     188773.84247    133879.57247                  21179140.8594
        27.0004         27.2504
  22698711.9454   -1161242.48046   -865710.20746                  22698719.7774
        16.7504         17.0004
 02  7 15 18 58 45.0000000  0  8G 3G 9G14G15G17G18G21G31
  21972857.4924    1064186.01447    795357.91646                  21972864.9964
        23.7504         24.2504
  23630517.0554    -236057.52246   -177659.21846                  23630526.5044
        12.2504         12.7504
  21008798.1644   -2005067.49947  -1508132.20147                  21008804.6214
        26.5004         29.7504
  22446151.5944    2393418.90546   1789305.72346                  22446160.5164
        19.2504         19.5004
  23218517.0704    2636113.87945   1975352.89446                  23218528.4654
        11.5004         12.0004
  22227710.5784    1958029.74447   1457153.17346                  22227717.3874
        23.2504         21.2504
  21179582.8444     191132.47447    135717.46547                  21179589.6884
        27.2504         27.2504
  22695545.3204   -1177884.13046   -878677.70846                  22695553.0004
        16.7504         17.0004
 02  7 15 18 59  0.0000000  0  8G 3G 9G14G15G17G18G21G31
  21976470.8204    1083172.75247    810152.75546                  21976478.4884
        23.7504         24.0004
  23630274.0474    -237336.95346   -178656.16346                  23630283.6844
        12.0004         12.7504
  21003041.8444   -2035316.63647  -1531702.92847                  21003048.0554
        26.5004         29.7504
  22453455.6564    2431802.65146   1819215.08946                  22453464.5904
        18.7504         19.2504
  23226510.4224    2678117.17245   2008082.66546                  23226520.3984
        11.7504         12.0004
  22233446.3204    1988170.56147   1480639.50646                  22233453.0234
        23.7504         21.2504
  21180035.3364     193510.76147    137570.67647                  21180042.0164
        27.2504         27.2504
  22692400.7274   -1194408.39846   -891553.74546                  22692408.3364
        17.0004         17.0004
 02  7 15 18 59 15.0000000  0  8G 3G 9G14G15G17G18G21G31
  21980102.6644    1102258.71447    825024.92046                  21980110.0864
        23.7504         24.2504
  23630053.2424    -238494.23245   -179557.94346                  23630062.9494
        11.5004         12.5004
  20997304.2424   -2065467.34647  -1555196.96447                  20997310.4884
        26.5004         29.7504
  22460769.1174    2470235.01846   1849162.32846                  22460777.8164
        18.7504         19.2504
  23234511.3134    2720161.27446   2040844.26746                  23234521.3134
        12.0004         12.0004
  22239183.5864    2018318.75547   1504131.58346                  22239190.2544
        23.7504         21.2504
  21180491.7734     195908.51247    139439.05047                  21180498.4064
        27.2504         27.2504
  22689278.8364   -1210815.46546   -904338.45546                  22689286.7974
        17.0004         16.7504
 02  7 15 18 59 30.0000000  0  8G 3G 9G14G15G17G18G21G31
  21983753.0164    1121442.06147    839972.96246                  21983760.2274
        23.7504         24.2504
  23629855.4224    -239530.76845   -180365.64646                  23629864.8834
        11.5004         12.7504
  20991585.2194   -2095521.05147  -1578615.41247                  20991591.5234
        26.5004         30.0004
  22468091.6094    2508714.24046   1879146.09746                  22468100.7194
        19.0004         19.2504
  23242519.3674    2762244.51946   2073636.32246                  23242530.1054
        12.0004         12.0004
  22244921.3834    2048472.75547   1527628.18146                  22244928.1564
        23.5004         21.2504
  21180951.2504     198323.85647    141321.13147                  21180958.0354
        27.0004         27.5004
  22686178.5004   -1227106.82646   -917033.01346                  22686186.6724
        16.7504         17.0004
 02  7 15 18 59 45.0000000  0  8G 3G 9G14G15G17G18G21G31
  21987423.2424    1140729.05247    855001.76946                  21987430.6054
        23.7504         24.0004
  23629683.2114    -240440.01345   -181074.15246                  23629693.2344
        11.5004         12.7504
  20985885.8984   -2125470.98247  -1601952.99747                  20985892.1684
        26.7504         30.0004
  22475424.2114    2547246.89346   1909171.48446                  22475433.3674
        19.2504         19.5004
  23250536.3834    2804373.33746   2106463.91646                  23250546.7584
        12.2504         12.0004
  22250662.0004    2078638.96147   1551134.29446                  22250668.5864
        23.7504         21.2504
  21181415.6094     200763.50047    143222.14847                  21181422.4414
        27.2504         27.2504
  22683101.3444   -1243275.84946   -929632.23046                  22683109.3984
        16.7504         17.0004
 02  7 15 19  0  0.0000000  0  8G 3G 9G14G15G17G18G21G31
  21991112.7974    1160117.47947    870109.62146                  21991120.3714
        23.5004         24.0004
  23629534.0164    -241223.97445   -181685.00346                  23629543.7234
        11.7504         12.5004
  20980205.8054   -2155319.11047  -1625211.25647                  20980212.1214
        26.7504         30.2504
  22482766.4924    2585830.76046   1939236.79046                  22482775.4844
        19.2504         19.2504
  23258561.4774    2846545.42245   2139325.21445                  23258572.2734
        11.7504         11.5004
  22256404.4844    2108815.21347   1574648.24146                  22256410.7424
        23.5004         21.5004
  21181884.2814     203225.32747    145140.45547                  21181891.0204
        27.5004         27.2504
  22680047.6094   -1259324.39246   -942137.56846                  22680055.9694
        17.0004         17.2504
 02  7 15 19  0 15.0000000  0  8G 3G 9G14G15G17G18G21G31
  21994820.8204    1179605.19047    885294.83146                  21994828.4654
        22.7504         23.7504
  23629408.2034    -241884.47646   -182199.69446                  23629416.9264
        12.2504         12.5004
  20974545.1644   -2185067.20847  -1648391.57047                  20974551.5044
        27.0004         30.2504
  22490118.1024    2624463.86846   1969340.46346                  22490127.2114
        19.0004         19.5004
  23266594.1884    2888758.93345   2172218.79845                  23266605.3134
        11.7504         11.7504
  22262148.2424    2138999.53947   1598168.46546                  22262154.7464
        23.2504         21.2504
  21182356.3834     205707.68947    147074.76347                  21182363.1454
        27.2504         27.2504
  22677016.2894   -1275254.33246   -954550.48846                  22677024.9884
        16.7504         17.0004
 02  7 15 19  0 30.0000000  0  8G 3G 9G14G15G17G18G21G31
  21998548.6334    1199194.87847    900559.50146                  21998556.6174
        22.7504         24.2504
  23629307.0084    -242418.39746   -182615.74646                  23629314.9224
        12.5004         12.7504
  20968903.8204   -2214712.16747  -1671491.51147                  20968910.0904
        27.0004         30.2504
  22497479.6644    2663149.08346   1999484.73446                  22497488.6214
        19.2504         19.2504
  23274635.2814    2931016.67845   2205146.84545                  23274645.4804
        11.5004         11.5004
  22267894.2114    2169194.88847   1621697.28546                  22267900.5864
        23.2504         21.0004
  21182833.0704     208213.32247    149027.20647                  21182840.1764
        27.0004         27.0004
  22674007.8444   -1291062.54846   -966868.57246                  22674016.0864
        16.7504         17.2504
 02  7 15 19  0 45.0000000  0  8G 3G 9G14G15G17G18G21G31
  22002296.1884    1218886.80347    915903.84246                  22002304.0314
        23.0004         24.0004
  23629229.4774    -242825.44646   -182932.91846                  23629238.5164
        12.7504         12.5004
  20963282.1484   -2244253.48847  -1694510.69847                  20963288.3714
        26.7504         30.2504
  22504851.0784    2701886.62346   2029669.78146                  22504860.3984
        18.5004         19.0004
  23282685.5394    2973318.79045   2238109.48245                  23282695.7854
        11.2504         11.7504
  22273642.2664    2199401.34547   1645234.76246                  22273648.5944
        23.0004         21.0004
  21183314.3984     210742.48147    150997.97647                  21183321.1484
        27.0004         27.2504
  22671022.8754   -1306748.68446   -979091.51746                  22671030.7664
        16.7504         17.5004
 02  7 15 19  1  0.0000000  0  8G 3G 9G14G15G17G18G21G31
  22006062.8674    1238682.00147    931328.65446                  22006070.6414
        23.0004         24.0004
  23629176.3444    -243104.17346   -183150.10446                  23629184.4344
        12.2504         12.5004
  20957680.7814   -2273689.58247  -1717447.89247                  20957687.0164
        27.0004         30.2504
  22512233.0634    2740677.84146   2059896.65246                  22512242.1604
        18.7504         18.7504
  23290744.0554    3015666.66945   2271107.77045                  23290754.5594
        11.2504         11.7504
  22279392.9304    2229620.35047   1668782.01446                  22279399.4924
        23.0004         21.0004
  21183800.4224     213296.58247    152988.18547                  21183807.0434
        27.0004         27.0004
  22668061.5784   -1322311.16846   -991218.10546                  22668069.5164
        16.7504         17.2504
 02  7 15 19  1 15.0000000  0  8G 3G 9G14G15G17G18G21G31
  22009849.5784    1258579.97747    946833.55146                  22009857.4924
        23.7504         24.0004
  23629147.6094    -243254.82746   -183267.49846                  23629156.0864
        12.2504         12.5004
  20952099.2734   -2303020.67647  -1740303.26747                  20952105.5314
        26.7504         30.0004
  22519624.5704    2779522.24346   2090164.97046                  22519633.5274
        18.7504         19.0004
  23298811.2034    3058059.73645   2304141.24545                  23298822.4344
        11.0004         11.0004
  22285145.5634    2259851.43447   1692338.67746                  22285151.8554
        22.7504         20.7504
  21184291.0634     215875.07747    154997.39947                  21184297.6254
        27.2504         27.2504
  22665123.2424   -1337750.41546  -1003248.68146                  22665131.2034
        16.5004         17.0004
 02  7 15 19  1 30.0000000  0  8G 3G 9G14G15G17G18G21G31
  22013656.4774    1278585.83547    962422.51346                  22013664.4144
        23.0004         24.2504
  23629144.5944    -243271.84946   -183280.76946                  23629153.9734
        12.0004         12.5004
  20946538.7974   -2332241.20347  -1763072.49147                  20946544.9494
        27.0004         30.2504
  22527027.8524    2818425.12546   2120478.85246                  22527036.7624
        19.0004         18.7504
  23306887.9774    3100503.37745   2337214.15645                  23306899.3834
        11.0004         11.0004
  22290901.6024    2290100.01547   1715908.98346                  22290907.9774
        22.2504         20.7504
  21184787.4304     218483.24647    157029.74247                  21184794.0984
        27.0004         27.2504
  22662209.6484   -1353060.74046  -1015178.78746                  22662217.8094
        16.2504         17.0004
 02  7 15 19  1 45.0000000  0  8G 3G 9G14G15G17G18G21G31
  22017482.8364    1298694.18047    978091.33146                  22017490.8094
        23.0004         24.0004
  23629165.8284    -243160.33246   -183193.87146                  23629174.9964
        12.2504         12.7504
  20940998.3594   -2361356.21547  -1785759.49147                  20941004.4774
        27.0004         30.0004
  22534441.3914    2857381.27746   2150834.24746                  22534450.1844
        18.7504         19.0004
  23314973.9924    3142992.45645   2370322.44145                  23314984.5204
        11.0004         10.7504
  22296660.1334    2320360.75847   1739488.75946                  22296666.5664
        22.5004         21.0004
  21185288.5234     221116.09147    159081.30947                  21185295.2274
        27.0004         27.2504
  22659319.9534   -1368247.16446  -1027012.34246                  22659327.9494
        16.5004         17.0004
 02  7 15 19  2  0.0000000  0  8G 3G 9G14G15G17G18G21G31
  22021329.6484    1318908.45347    993842.69346                  22021337.7034
        23.0004         24.0004
  23629212.1414    -242916.58446   -183003.92946                  23629221.6254
        12.5004         12.2504
  20935478.9064   -2390361.76147  -1808361.19447                  20935484.9884
        27.2504         30.2504
  22541865.2974    2896394.23246   2181233.90246                  22541874.3364
        18.7504         18.7504
  23323068.2114    3185530.44245   2403468.87445                  23323079.7814
        10.7504         11.0004
  22302421.3594    2350637.26147   1763080.81446                  22302428.2304
        22.2504         20.7504
  21185794.9454     223777.35047    161155.01447                  21185801.8404
        27.0004         27.2504
  22656454.6094   -1383306.01746  -1038746.50146                  22656463.0394
        16.7504         17.0004
 02  7 15 19  2 15.0000000  0  8G 3G 9G14G15G17G18G21G31
  22025196.2344    1339227.89647   1009676.00746                  22025204.2424
        22.7504         23.7504
  23629283.0554    -242541.15745   -182711.40846                  23629292.4104
        11.5004         12.7504
  20929979.8984   -2419258.32447  -1830877.96847                  20929985.9454
        27.0004         30.2504
  22549299.3524    2935463.39146   2211677.35646                  22549308.3914
        18.5004         18.5004
  23331172.2664    3228116.57445   2436652.80345                  23331181.9494
        10.5004         10.7504
  22308185.8834    2380928.90847   1786684.66946                  22308192.7274
        22.7504         21.0004
  21186306.5234     226466.21847    163250.24047                  21186313.1914
        27.0004         27.0004
  22653613.1564   -1398237.77246  -1050381.61746                  22653621.3874
        17.0004         17.2504
 02  7 15 19  2 30.0000000  0  8G 3G 9G14G15G17G18G21G31
  22029083.6804    1359656.09547   1025594.06246                  22029091.8404
        23.0004         23.7504
  23629380.1254    -242030.08645   -182313.17046                  23629388.8484
        11.7504         12.7504
  20924502.3284   -2448041.99547  -1853306.78147                  20924508.4104
        26.7504         30.2504
  22556745.6564    2974592.44946   2242167.48046                  22556754.8714
        18.2504         18.7504
  23339285.7734    3270754.68245   2469877.22245                  23339296.5704
        10.0004         10.7504
  22313954.0474    2411239.49047   1810303.28446                  22313960.8554
        23.2504         20.7504
  21186824.1564     229186.51247    165369.94547                  21186830.8014
        27.0004         27.2504
  22650796.7504   -1413038.54346  -1061914.67046                  22650805.0394
        17.5004         17.5004
 02  7 15 19  2 45.0000000  0  8G 3G 9G14G15G17G18G21G31
  22032991.2974    1380190.55547   1041594.92146                  22032999.3634
        23.2504         24.0004
  23629502.9844    -241385.57845   -181810.96546                  23629512.1524
        11.7504         12.5004
  20919046.0944   -2476714.86347  -1875649.25247                  20919052.2114
        26.7504         30.2504
  22564202.6954    3013779.02246   2272702.41746                  22564211.9224
        18.2504         18.7504
  23347409.1254    3313442.36845   2503140.29345                  23347419.3594
         9.7504         11.0004
  22319724.9534    2441566.60847   1833934.78446                  22319731.5634
        23.0004         20.7504
  21187347.2894     231936.19547    167512.55847                  21187353.9924
        27.0004         27.2504
  22648004.7664   -1427710.39346  -1073347.26546                  22648012.6094
        17.5004         17.5004
 02  7 15 19  3  0.0000000  0  8G 3G 9G14G15G17G18G21G31
  22036919.1024    1400831.44847   1057678.71746                  22036927.1684
        23.0004         24.0004
  23629650.6804    -240607.07445   -181204.34046                  23629660.0234
        11.5004         12.7504
  20913611.0314   -2505276.28747  -1897904.88347                  20913617.1484
        27.0004         30.2504
  22571670.7424    3053023.48246   2303282.45846                  22571679.8984
        18.5004         18.5004
  23355542.3984    3356179.80445   2536442.10945                  23355552.3284
        10.0004         10.7504
  22325499.2344    2471910.52947   1857579.37246                  22325506.0314
        22.7504         20.5004
  21187876.4064     234715.70347    169678.40247                  21187883.0864
        27.5004         27.2504
  22645237.5164   -1442252.81846  -1084679.02746                  22645245.5124
        17.5004         17.7504
 02  7 15 19  3 15.0000000  0  8G 3G 9G14G15G17G18G21G31
  22040868.0004    1421582.67347   1073848.48046                  22040875.9614
        23.2504         24.0004
  23629825.4924    -239690.46545   -180490.11746                  23629835.3404
        11.5004         12.7504
  20908198.1724   -2533722.07847  -1920070.41747                  20908204.2424
        27.0004         30.2504
  22579150.7114    3092329.80746   2333910.71346                  22579159.9614
        18.5004         18.5004
  23363684.8594    3398971.16545   2569785.95545                  23363696.2194
         9.5004         10.5004
  22331277.3914    2502275.32447   1881240.22146                  22331284.1294
        22.7504         20.5004
  21188411.8364     237529.03047    171870.59947                  21188418.4574
        27.2504         27.2504
  22642495.1954   -1456661.72646  -1095906.72946                  22642503.0634
        17.2504         17.5004
 02  7 15 19  3 30.0000000  0  8G 3G 9G14G15G17G18G21G31
  22044837.2344    1442440.68647   1090101.45746                  22044845.4884
        23.2504         23.7504
  23630026.2034    -238639.01845   -179670.79946                  23630035.1604
        11.7504         12.5004
  20902806.3984   -2562055.43647  -1942148.33547                  20902812.3634
        27.2504         30.2504
  22586641.6564    3131694.56046   2364584.49346                  22586650.5314
        18.7504         18.5004
  23371837.2114    3441812.95245   2603169.10945                  23371847.5634
         9.5004         10.7504
  22337059.0634    2532657.52447   1904914.64446                  22337065.2274
        22.7504         20.2504
  21188952.9924     240372.83247    174086.55047                  21188959.6604
        27.2504         27.2504
  22639778.0474   -1470940.25646  -1107032.84546                  22639785.7384
        17.0004         17.0004
 02  7 15 19  3 45.0000000  0  8G 3G 9G14G15G17G18G21G31
  22048827.0554    1463407.67047   1106439.34246                  22048834.9574
        23.0004         24.0004
  23630252.1884    -237450.27546   -178744.51546                  23630261.8014
        12.0004         12.7504
  20897436.4924   -2590273.83147  -1964136.67547                  20897442.4924
        27.0004         30.0004
  22594143.9064    3171120.02446   2395305.58646                  22594152.7584
        18.7504         18.5004
  23379999.4304    3484707.40645   2636593.28045                  23380010.7894
         9.5004         10.5004
  22342844.3594    2563059.54547   1928604.50946                  22342850.9574
        22.7504         20.2504
  21189500.4614     243249.24247    176327.90347                  21189507.1764
        27.7504         27.5004
  22637086.4614   -1485086.05946  -1118055.53346                  22637094.4694
        17.2504         17.5004
 02  7 15 19  4  0.0000000  0  8G 3G 9G14G15G17G18G21G31
  22052837.7814    1484482.41847   1122861.19746                  22052845.6604
        23.2504         23.7504
  23630503.9144    -236125.09445   -177711.91646                  23630514.2304
        11.7504         12.7504
  20892088.5084   -2618377.87847  -1986035.90547                  20892094.5314
        27.0004         30.2504
  22601657.8054    3210605.24546   2426073.23246                  22601666.7974
        18.7504         18.5004
  23388172.4064    3527653.56745   2670057.73045                  23388183.9064
         9.2504         10.5004
  22348633.3524    2593480.45847   1952309.09346                  22348640.1374
        22.5004         20.5004
  21190053.7114     246157.53647    178594.10447                  21190060.5824
        27.7504         27.5004
  22634419.6954   -1499099.85346  -1128975.37146                  22634427.5634
        17.0004         17.5004
 02  7 15 19  4 15.0000000  0  8G 3G 9G14G15G17G18G21G31
  22056869.0164    1505668.26447   1139369.63046                  22056876.9654
        23.0004         23.7504
  23630783.2194    -234659.78445   -176570.12646                  23630792.9384
        11.7504         12.7504
  20886763.0474   -2646363.89447  -2007843.17047                  20886769.0944
        27.0004         30.0004
  22609183.5634    3250153.67346   2456890.14046                  22609192.4964
        18.5004         18.0004
  23396355.1484    3570654.94245   2703565.23945                  23396367.0354
         9.2504         10.7504
  22354426.3444    2623923.76947   1976031.12246                  22354433.0704
        22.2504         20.5004
  21190613.9224     249101.17747    180887.84647                  21190620.7544
        27.7504         27.7504
  22631779.0004   -1512977.87046  -1139789.39446                  22631786.7734
        17.5004         17.2504
 02  7 15 19  4 30.0000000  0  8G 3G 9G14G15G17G18G21G31
  22060921.7034    1526964.71247   1155964.23546                  22060929.8524
        23.2504         23.5004
  23631088.1484    -233054.55745   -175319.30646                  23631097.0124
        11.5004         12.5004
  20881459.8914   -2674232.15547  -2029558.68047                  20881465.8794
        26.7504         30.0004
  22616721.5164    3289764.95146   2487756.01946                  22616730.5784
        18.5004         18.0004
  23404548.6414    3613711.04645   2737115.36045                  23404561.2304
         9.2504         11.0004
  22360223.9774    2654389.14847   1999770.35146                  22360230.7504
        22.2504         20.5004
  21191180.7974     252079.88347    183208.91147                  21191187.5704
        27.7504         27.7504
  22629163.7734   -1526720.45846  -1150497.89546                  22629171.5704
        17.5004         17.2504
 02  7 15 19  4 45.0000000  0  8G 3G 9G14G15G17G18G21G31
  22064995.5164    1548371.99847   1172645.21346                  22065003.3594
        23.2504         23.5004
  23631420.2584    -231308.90545   -173959.07146                  23631429.0634
        11.5004         12.7504
  20876179.0784   -2701981.94847  -2051181.87147                  20876185.1134
        26.5004         29.7504
  22624271.1884    3329439.40446   2518671.11646                  22624280.1214
        18.2504         18.2504
  23412752.4384    3656822.42645   2770708.56745                  23412763.5744
         9.5004         10.7504
  22366025.3524    2684876.92047   2023527.02846                  22366032.1024
        22.0004         20.2504
  21191754.4614     255094.16048    185557.69347                  21191761.0234
        28.0004         27.7504
  22626574.6414   -1540326.99446  -1161100.38946                  22626582.4264
        17.7504         17.5004
 02  7 15 19  5  0.0000000  0  8G 3G 9G14G15G17G18G21G31
  22069089.8594    1569888.79547   1189411.52946                  22069097.7154
        23.0004         23.7504
  23631779.2664    -229423.81845   -172490.18746                  23631788.7854
        11.5004         12.5004
  20870920.8284   -2729614.18147  -2072713.46347                  20870926.8874
        26.5004         29.7504
  22631833.1484    3369175.89846   2549634.56946                  22631841.8834
        18.5004         18.0004
  23420966.2974    3699987.80945   2804343.85145                  23420977.9614
         9.2504         11.2504
  22371831.3674    2715385.99747   2047300.32046                  22371837.9884
        22.5004         20.7504
  21192334.7034     258142.87348    187933.31947                  21192341.1024
        28.0004         27.7504
  22624011.0234   -1553798.40546  -1171597.57246                  22624019.0434
        17.5004         17.7504
 02  7 15 19  5 15.0000000  0  8G 3G 9G14G15G17G18G21G31
  22073205.2974    1591515.73247   1206263.65646                  22073213.1174
        23.0004         23.5004
  23632164.8444    -227398.43445   -170911.98846                  23632174.9264
        11.7504         12.0004
  20865685.1644   -2757127.88547  -2094152.68847                  20865691.1884
        26.5004         29.5004
  22639406.3754    3408975.21746   2580646.96146                  22639415.5554
        18.2504         18.2504
  23429191.2504    3743207.79545   2838021.67745                  23429202.9384
         9.2504         11.0004
  22377640.9454    2745917.16547   2071090.81446                  22377647.5554
        22.2504         20.5004
  21192921.3834     261226.91847    190336.46647                  21192927.9924
        27.2504         27.7504
  22621473.0704   -1567133.89446  -1181988.85146                  22621480.8794
        17.5004         17.5004
 02  7 15 19  5 30.0000000  0  8G 3G 9G14G15G17G18G21G31
  22077341.4224    1613250.76447   1223200.02346                  22077349.2194
        23.0004         23.5004
  23632576.7814    -225234.51546   -169225.80246                  23632585.8444
        12.0004         12.5004
  20860471.5474   -2784524.69447  -2115500.83147                  20860477.6764
        26.5004         29.7504
  22646991.7974    3448835.47346   2611706.84546                  22647001.2814
        18.2504         18.0004
  23437425.9534    3786480.64245   2871740.70845                  23437436.7734
         9.2504         11.0004
  22383454.7034    2776468.45847   2094896.98546                  22383461.7154
        22.0004         20.5004
  21193514.4454     264344.56947    192765.80147                  21193521.0904
        27.2504         27.7504
  22618960.9064   -1580335.03846  -1192275.45146                  22618969.1844
        17.5004         17.7504
 02  7 15 19  5 45.0000000  0  8G 3G 9G14G15G17G18G21G31
  22081498.4614    1635096.45447   1240222.61346                  22081506.0944
        23.0004         23.5004
  23633015.2034    -222929.14745   -167429.42546                  23633024.1254
        11.7504         12.7504
  20855281.0394   -2811801.86247  -2136755.75347                  20855287.0984
        26.5004         29.7504
  22654588.8834    3488759.32746   2642816.28246                  22654598.0514
        18.0004         18.0004
  23445672.0084    3829809.00845   2905502.98445                  23445684.3524
         9.5004         11.0004
  22389273.1564    2807042.60447   2118720.96746                  22389280.0634
        23.0004         20.5004
  21194114.7504     267498.45047    195223.37247                  21194121.5704
        27.2504         27.5004
  22616475.0474   -1593399.02946  -1202455.16546                  22616483.4304
        17.5004         18.0004
 02  7 15 19  6  0.0000000  0  8G 3G 9G14G15G17G18G21G31
  22085676.4224    1657051.66947   1257330.55446                  22085684.1844
        23.0004         23.5004
  23633480.6564    -220483.25545   -165523.54246                  23633490.1524
        11.5004         12.5004
  20850113.1024   -2838959.85247  -2157917.79847                  20850119.1254
        26.2504         29.5004
  22662198.4064    3528745.85246   2673974.55346                  22662207.1524
        18.2504         18.0004
  23453926.9064    3873191.87945   2939307.72645                  23453938.2894
         9.7504         11.0004
  22395095.2974    2837638.72447   2142562.07246                  22395101.8014
        23.0004         20.5004
  21194721.5704     270687.71647    197708.51347                  21194728.4024
        27.2504         27.5004
  22614015.1334   -1606326.70446  -1212528.66546                  22614023.3754
        17.5004         18.0004
 02  7 15 19  6 15.0000000  0  8G 3G 9G14G15G17G18G21G31
  22089875.7274    1679117.97347   1274525.04746                  22089883.5004
        22.7504         23.2504
  23633973.4694    -217895.02545   -163506.75446                  23633983.5984
        11.7504         12.0004
  20844967.9144   -2865996.88547  -2178985.59647                  20844974.0084
        26.0004         29.5004
  22669819.8444    3568796.60246   2705182.87746                  22669829.2344
        18.2504         17.7504
  23462193.2114    3916630.89845   2973156.23245                  23462205.2154
        10.0004         11.0004
  22400922.1334    2868258.51647   2166421.62046                  22400928.7424
        22.7504         20.7504
  21195335.6094     273914.05447    200222.54047                  21195342.4534
        27.0004         27.7504
  22611581.0784   -1619116.20446  -1222494.49946                  22611589.3204
        17.5004         17.7504
 02  7 15 19  6 30.0000000  0  8G 3G 9G14G15G17G18G21G31
  22094095.3674    1701293.21747   1291804.43946                  22094103.0234
        22.2504         23.2504
  23634493.0084    -215166.24946   -161380.44046                  23634502.8914
        12.2504         12.7504
  20839845.4384   -2892914.82747  -2199960.59147                  20839851.4144
        26.0004         29.2504
  22677452.9224    3608909.62746   2736439.72346                  22677462.3014
        18.2504         17.7504
  23470469.2424    3960124.20245   3007047.04445                  23470481.5744
        10.0004         11.5004
  22406753.2974    2898899.99847   2190298.06546                  22406760.2274
        23.0004         20.5004
  21195956.2974     277175.57347    202763.98347                  21195963.2504
        27.2504         27.7504
  22609173.4694   -1631769.24346  -1232353.99646                  22609181.4304
        17.7504         17.7504
 02  7 15 19  6 45.0000000  0  8G 3G 9G14G15G17G18G21G31
  22098335.7664    1723577.00547   1309168.40246                  22098343.3524
        22.2504         23.2504
  23635038.5474    -212296.89845   -159144.58746                  23635048.3834
        11.7504         12.2504
  20834745.9614   -2919713.52847  -2220842.67247                  20834751.9494
        26.2504         29.5004
  22685098.3674    3649084.77046   2767744.97546                  22685107.8404
        18.5004         18.0004
  23478756.4304    4003671.45645   3040979.87045                  23478767.7774
        10.0004         11.5004
  22412587.9224    2929563.07147   2214191.34746                  22412594.7074
        22.7504         20.5004
  21196583.5554     280472.41047    205332.94347                  21196590.3284
        27.0004         27.5004
  22606791.7034   -1644285.86146  -1242107.19246                  22606799.2664
        18.0004         17.7504
 02  7 15 19  7  0.0000000  0  8G 3G 9G14G15G17G18G21G31
  22102598.4064    1745976.46447   1326622.50246                  22102606.0164
        22.2504         23.2504
  23635612.9384    -209279.58545   -156793.45046                  23635622.6454
        11.7504         13.0004
  20829670.3594   -2946385.46647  -2241625.98447                  20829676.3834
        26.2504         29.2504
  22692756.4384    3689329.24246   2799104.24246                  22692765.8164
        18.5004         17.7504
  23487055.0234    4047279.91945   3074960.41245                  23487065.2934
        10.2504         11.2504
  22418428.2664    2960254.94947   2238107.06946                  22418435.2544
        22.7504         20.2504
  21197219.0944     283811.75247    207935.02947                  21197225.7384
        27.0004         27.2504
  22604437.2734   -1656658.73646  -1251748.38046                  22604445.0004
        17.7504         18.0004
 02  7 15 19  7 15.0000000  0  8G 3G 9G14G15G17G18G21G31
  22106880.8834    1768482.74947   1344159.84146                  22106888.7734
        22.0004         22.7504
  23636213.7194    -206122.97845   -154333.75746                  23636223.1914
        11.7504         13.2504
  20824617.4614   -2972939.16447  -2262317.15647                  20824623.5204
        26.2504         29.2504
  22700426.5164    3729634.26746   2830510.69946                  22700435.4734
        18.5004         18.2504
  23495363.3134    4090940.88745   3108981.85845                  23495373.9104
        10.5004         11.2504
  22424272.6954    2990967.01647   2262038.52646                  22424279.2114
        22.7504         20.0004
  21197860.8674     287184.99547    210563.52947                  21197867.9024
        27.0004         27.7504
  22602108.2664   -1668896.37446  -1261284.19146                  22602116.2154
        17.7504         17.7504
 02  7 15 19  7 30.0000000  0  8G 3G 9G14G15G17G18G21G31
  22111184.5234    1791097.97747   1361782.07646                  22111192.5084
        22.2504         23.0004
  23636841.0004    -202824.61545   -151763.61146                  23636851.3984
        11.7504         12.7504
  20819587.3364   -2999372.10347  -2282914.23147                  20819593.3364
        26.2504         29.2504
  22708108.3204    3770002.14146   2861966.12946                  22708117.5124
        18.2504         17.7504
  23503682.5554    4134656.54245   3143045.92945                  23503694.2194
        10.0004         11.2504
  22430121.2814    3021701.50647   2285987.45046                  22430128.0784
        22.2504         20.2504
  21198509.7344     290594.24247    213220.07747                  21198516.5554
        26.7504         27.5004
  22599805.8444   -1680996.39146  -1270712.75746                  22599813.7584
        17.7504         18.0004
 02  7 15 19  7 45.0000000  0  8G 3G 9G14G15G17G18G21G31
  22115509.4224    1813824.41047   1379490.96046                  22115517.5234
        22.0004         23.0004
  23637496.5944    -199381.95745
        11.7504
  20814580.8204   -3025681.63947  -2303415.14347                  20814586.8094
        26.2504         29.2504
  22715802.3364    3810435.38846   2893472.49846                  22715811.6454
        18.2504         17.7504
  23512012.7034    4178429.43145   3177154.57845                  23512024.4494
        10.7504         11.5004
  22435974.8524    3052460.92947   2309955.80746                  22435981.6484
        22.2504         20.0004
  21199165.8364     294042.28047    215906.85747                  21199172.6684
        27.2504         27.5004
  22597529.8834   -1692956.05946  -1280031.97846                  22597537.6684
        17.7504         18.2504
 02  7 15 19  8  0.0000000  0  8G 3G 9G14G15G17G18G21G31
  22119855.4924    1836662.84847   1397287.11846                  22119863.5234
        22.0004         23.0004
  23638178.9064    -195793.90645
        11.7504
  20809597.9774   -3051866.63047  -2323819.01647                  20809603.9774
        26.2504         29.5004
  22723509.2894    3850934.84446   2925030.46046                  22723518.5274
        18.2504         17.5004
  23520353.3914    4222260.35445   3211308.46145                  23520364.3634
        11.2504         11.2504
  22441833.0084    3083246.18447   2333944.29546                  22441839.5124
        22.0004         19.5004
  21199829.6954     297529.95247    218624.51847                  21199836.4574
        27.5004         27.7504
  22595280.8834   -1704774.30646  -1289240.98646                  22595288.3164
        17.7504         18.0004
 02  7 15 19  8 15.0000000  0  8G 3G 9G14G15G17G18G21G31
  22124223.0394    1859614.74247   1415171.67746                  22124231.1054
        22.0004         23.2504
  23638890.1954    -192058.81646       394.29456                  23638899.6334
        12.2504         12.5004
  20804639.2664   -3077925.20447  -2344124.37947                  20804645.3134
        26.5004         29.7504
  22731229.0634    3891502.15746   2956641.30446                  22731238.2074
        18.2504         17.7504
  23528705.0314    4266151.12445   3245508.98145                  23528716.3324
        11.0004         11.5004
  22447696.6644    3114059.00447   2357954.25746                  22447703.3444
        22.0004         19.7504
  21200501.2584     301059.02647    221374.44147                  21200508.1884
        27.2504         27.7504
  22593059.2664   -1716449.38446  -1298338.44346                  22593066.5234
        18.0004         18.0004
 02  7 15 19  8 30.0000000  0  8G 3G 9G14G15G17G18G21G31
  22128612.4454    1882680.45147   1433144.92646                  22128620.4184
        22.2504         23.0004
  23639628.7894    -188176.00046      3419.85646                  23639637.4064
        12.0004         12.2504
  20799704.7194   -3103856.74847  -2364330.75447                  20799710.7074
        26.5004         29.7504
  22738961.6174    3932137.80646   2988305.38746                  22738971.2424
        17.7504         17.7504
  23537069.2344    4310101.89345   3279756.22645                  23537080.6174
        11.0004         11.0004
  22453565.2274    3144899.89347   2381986.09246                  22453571.6954
        21.7504         19.7504
  21201180.5784     304629.86047    224156.90747                  21201187.4224
        27.0004         27.7504
  22590865.1724   -1727980.74146  -1307323.91146                  22590872.5704
        18.0004         17.5004
 02  7 15 19  8 45.0000000  0  8G 3G 9G14G15G17G18G21G31
  22133022.4614    1905855.34447   1451203.25446                  22133030.5864
        22.2504         23.0004
  23640395.1884    -184149.81545      6557.16046                  23640405.5274
        11.7504         12.5004
  20794793.4694   -3129665.49647  -2384441.44747                  20794799.5514
        26.5004         29.7504
  22746706.7114    3972837.31746   3020019.24246                  22746716.5474
        18.0004         17.7504
  23545443.1564    4354108.29245   3314046.85845                  23545454.6094
        11.0004         10.7504
  22459438.4614    3175764.35247   2406036.29546                  22459445.2464
        21.5004         20.0004
  21201867.2584     308238.39347    226968.74247                  21201874.1174
        27.0004         27.7504
  22588697.2974   -1739372.55246  -1316200.64146                  22588704.9064
        17.7504         17.5004
 02  7 15 19  9  0.0000000  0  8G 3G 9G14G15G17G18G21G31
  22137453.6094    1929141.17147   1469348.01946                  22137461.7234
        22.0004         23.0004
  23641188.7894    -179978.10345      9807.82646                  23641198.6484
        11.5004         12.7504
  20789905.9064   -3155349.19347  -2404454.69947                  20789911.8594
        26.5004         30.0004
  22754463.7734    4013602.66346   3051784.39546                  22754473.3874
        17.5004         17.5004
  23553827.8834    4398172.29045   3348382.35045                  23553839.3364
        10.5004         11.0004
  22465316.7504    3206654.48347   2430106.50046                  22465323.4654
        21.2504         19.5004
  21202561.6094     311886.69547    229811.57347                  21202568.5394
        27.2504         27.5004
  22586556.3984   -1750622.75546  -1324967.02646                  22586563.8914
        18.0004         17.5004
 02  7 15 19  9 15.0000000  0  8G 3G 9G14G15G17G18G21G31
  22141905.5864    1952535.57347   1487577.38446                  22141913.6884
        22.2504         23.0004
  23642009.2194    -175663.06945     13170.18746                  23642019.4884
        11.7504         12.7504
  20785041.8594   -3180909.85447  -2424372.07947                  20785047.8594
        26.5004         30.0004
  22762233.5004    4054431.56846   3083599.06046                  22762243.4884
        17.0004         17.2504
  23562223.9304    4442291.72145   3382761.04045                  23562235.3594
        10.5004         10.5004
  22471199.4924    3237568.01147   2454194.93746                  22471205.9264
        21.5004         19.5004
  21203263.1884     315572.51447    232683.63647                  21203269.9844
        27.2504         27.7504
  22584442.0864   -1761733.39146  -1333624.65546                  22584449.4384
        17.7504         18.0004
 02  7 15 19  9 30.0000000  0  8G 3G 9G14G15G17G18G21G31
  22146378.6254    1976041.27847   1505893.48146                  22146386.9964
        22.2504         22.7504
  23642858.7504    -171201.74945     16646.53746                  23642868.6914
        11.5004         12.2504
  20780201.9534   -3206344.41247  -2444191.19447                  20780207.8834
        26.7504         29.7504
  22770015.2894    4095326.84646   3115465.44946                  22770024.7384
        17.0004         17.0004
  23570630.6804    4486469.27745   3417185.02545                  23570641.7114
        10.5004         10.5004
  22477087.0234    3268507.82347   2478303.86046                  22477093.6334
        21.2504         19.7504
  21203972.0784     319298.78947    235587.22147                  21203978.8984
        27.2504         27.7504
  22582354.6094   -1772701.56146  -1342171.27946                  22582362.5704
        17.5004         17.7504
 02  7 15 19  9 45.0000000  0  8G 3G 9G14G15G17G18G21G31
  22150873.1334    1999659.92547   1524297.58846                  22150881.2344
        22.0004         23.0004
  23643735.9924    -166592.08445     20238.48546                  23643745.6994
        11.7504         12.7504
  20775386.3054   -3231650.80147  -2463910.43647                  20775392.3404
        26.7504         29.7504
  22777810.7114    4136290.37346   3147385.02546                  22777820.3364
        17.2504         17.2504
  23579049.3754    4530706.79245   3451655.72845                  23579061.1804
        10.7504         10.5004
  22482980.3754    3299475.80947   2502434.73046                  22482987.0784
        21.7504         19.7504
  21204689.1644     323067.40447    238523.79747                  21204696.1764
        27.7504         28.0004
  22580295.3364   -1783525.17946  -1350605.25846                  22580302.9694
        17.7504         17.5004
 02  7 15 19 10  0.0000000  0  8G 3G 9G14G15G17G18G21G31
  22155388.6884    2023388.82347   1542787.60146                  22155396.7664
        22.2504         23.0004
  23644641.4224    -161836.58646     23944.05546                  23644650.7894
        12.2504         12.5004
  20770594.5634   -3256831.36447  -2483531.63847                  20770600.5984
        27.0004         30.2504
  22785618.2734    4177319.58246   3179355.78046                  22785627.5824
        17.0004         17.2504
  23587478.7974    4575001.80245   3486171.23445                  23587490.2504
        10.5004         10.0004
  22488878.3284    3330469.50147   2526585.63646                  22488885.4104
        21.7504         19.5004
  21205414.2114     326875.92047    241491.46247                  21205421.1884
        27.7504         27.7504
  22578262.3204   -1794206.62846  -1358928.46646                  22578269.9774
        17.5004         18.0004
 02  7 15 19 10 15.0000000  0  8G 3G 9G14G15G17G18G21G31
  22159925.0634    2047227.42847   1561363.10646                  22159932.8714
        22.2504         22.7504
  23645573.1414    -156935.52346     27763.05546                  23645582.2504
        12.0004         12.7504
  20765826.7664   -3281886.35547  -2503054.98447                  20765832.7894
        26.7504         30.2504
  22793438.6254    4218413.95546   3211377.31646                  22793448.1684
        17.5004         17.5004
  23595917.5944    4619353.73345   3520731.10345                  23595929.7624
         9.7504         10.0004
  22494780.7194    3361488.42347   2550756.19346                  22494787.7074
        21.2504         19.7504
  21206146.3364     330724.12947    244490.06047                  21206153.3134
        27.2504         28.0004
  22576256.8834   -1804746.14346  -1367141.06146                  22576264.9964
        17.7504         17.7504
 02  7 15 19 10 30.0000000  0  8G 3G 9G14G15G17G18G21G31
  22164481.9924    2071174.20547   1580022.90046                  22164489.8014
        22.2504         22.7504
  23646533.6884    -151890.05646     31694.57246                  23646543.2424
        12.5004         12.5004
  20761082.7894   -3306816.88947  -2522481.35247                  20761088.8244
        26.7504         30.0004
  22801270.9144    4259572.18646   3243448.59946                  22801280.3634
        17.7504         17.5004
  23604368.5164    4663761.35045   3555334.36245                  23604380.0164
         9.7504          9.5004
  22500687.8984    3392531.31647   2574945.42846                  22500694.9104
        21.0004         19.7504
  21206885.9454     334610.68647    247518.54247                  21206892.8054
        27.0004         27.5004
  22574278.1254   -1815145.01646  -1375244.07546                  22574286.1094
        18.0004         17.7504
 02  7 15 19 10 45.0000000  0  8G 3G 9G14G15G17G18G21G31
  22169059.7664    2095229.31647   1598767.10946                  22169067.7154
        22.5004         22.5004
  23647521.7274    -146699.87946     35738.89446                  23647531.4804
        12.7504         12.7504
  20756362.0704   -3331622.48947  -2541810.36947                  20756368.1054
        26.5004         30.2504
  22809115.1254    4300794.55546   3275569.86846                  22809124.6454
        17.5004         17.2504
  23612830.3204    4708224.86845   3589981.13145                  23612842.0084
         9.7504          9.7504
  22506600.0554    3423598.45347   2599153.56746                  22506606.4884
        21.2504         19.2504
  21207632.7974     338535.78547    250577.05847                  21207639.5474
        27.0004         27.5004
  22572326.5234   -1825402.82146  -1383237.16846                  22572334.4144
        18.2504         18.0004
 02  7 15 19 11  0.0000000  0  8G 3G 9G14G15G17G18G21G31
  22173657.5314    2119393.25447   1617596.11246                  22173665.5164
        22.0004         22.7504
  23648536.8834    -141364.11946     39896.60146                  23648545.2774
        12.2504         13.0004
  20751665.8444   -3356302.25147  -2561041.33947                  20751671.9384
        26.7504         30.0004
  22816971.7114    4342081.75246   3307741.65546                  22816980.9844
        17.0004         17.0004
  23621301.8284    4752744.89145   3624671.96945                  23621312.9184
         9.2504          9.5004
  22512517.2424    3454690.51347   2623381.11846                  22512523.8404
        21.7504         19.5004
  21208387.3594     342500.40647    253666.36747                  21208393.9224
        27.5004         27.5004
  22570401.5634   -1835518.63846  -1391119.61946                  22570409.4534
        18.5004         17.7504
 02  7 15 19 11 15.0000000  0  8G 3G 9G14G15G17G18G21G31
  22178276.5314    2143662.91547   1636507.51246                  22178284.2814
        22.2504         22.5004
  23649579.4774    -135885.63446     44165.56646                  23649588.4804
        12.7504         13.0004
  20746992.9694   -3380858.78947  -2580176.28047                  20746999.0744
        26.7504         30.0004
  22824840.3594    4383430.91646   3339961.71446                  22824849.9494
        16.7504         16.5004
  23629783.5314    4797318.53445   3659404.61345                  23629794.0704
         9.0004          9.5004
  22518437.6804    3485804.77947   2647625.97246                  22518444.2424
        22.0004         19.5004
  21209148.7894     346501.69647    256784.25347                  21209155.4344
        27.7504         27.5004
  22568503.0634   -1845495.26546  -1398893.60646                  22568510.8834
        18.5004         17.7504
 02  7 15 19 11 30.0000000  0  8G 3G 9G14G15G17G18G21G31
  22182915.2894    2168041.89847   1655504.08646                  22182923.2154
        22.2504         22.7504
  23650650.3754    -130260.55546     48548.73946                  23650658.4774
        13.0004         12.5004
  20742343.9384   -3405288.22647  -2599212.18547                  20742349.9264
        26.5004         30.2504
  22832721.5864    4424845.71346   3372232.93946                  22832731.4224
        17.0004         17.0004
  23638277.0084    4841949.60545   3694181.94545                  23638290.0204
         9.0004          9.0004
  22524363.4534    3516945.01547   2671891.07146                  22524369.9344
        21.7504         19.5004
  21209918.0164     350543.31847    259933.56647                  21209924.6254
        27.7504         27.5004
  22566631.8364   -1855328.87046  -1406556.15346                  22566639.3634
        18.5004         17.7504
 02  7 15 19 11 45.0000000  0  8G 3G 9G14G15G17G18G21G31
  22187575.3524    2192530.64547   1674586.20146                  22187583.1954
        22.0004         22.7504
  23651748.4924    -124488.09846     53046.74446                  23651757.0634
        12.7504         12.7504
  20737719.7344   -3429589.63747  -2618148.33047                  20737725.7814
        26.7504         30.5004
  22840615.1414    4466326.83646   3404555.83046                  22840625.0474
        16.7504         17.0004
  23646781.3834    4886638.67045   3729004.53945                  23646793.1414
         8.7504          8.5004
  22530294.3594    3548112.01447   2696177.01446                  22530300.8054
        21.7504         19.7504
  21210694.8054     354626.19247    263115.02247                  21210701.5084
        27.7504         27.5004
  22564787.6334   -1865018.53946  -1414106.53646                  22564795.2074
        18.0004         18.0004
 02  7 15 19 12  0.0000000  0  8G 3G 9G14G15G17G18G21G31
  22192255.1564    2217122.29247   1693748.49946                  22192263.0824
        22.2504         22.7504
  23652873.5554    -118574.98046     57654.37946                  23652882.7704
        12.5004         12.7504
  20733118.5234   -3453769.63847  -2636989.86247                  20733124.5824
        26.7504         30.2504
  22848520.0704    4507867.39146   3436925.02746                  22848529.6374
        16.7504         17.0004
  23655294.9304    4931378.78845   3763866.87845                  23655306.3484
         8.2504          9.0004
  22536229.3444    3579298.77347   2720478.36746                  22536236.1414
        21.7504         19.5004
  21211478.3594     358743.67647    266323.45347                  21211485.2544
        27.2504         27.5004
  22562969.8524   -1874571.17046  -1421550.13746                  22562977.0744
        18.0004         18.0004
 02  7 15 19 12 15.0000000  0  8G 3G 9G14G15G17G18G21G31
  22196955.0704    2241820.89647   1712994.14746                  22196962.7384
        22.2504         22.7504
  23654026.3054    -112516.79946     62375.04346                  23654035.4264
        12.5004         12.7504
  20728541.0554   -3477823.87747  -2655733.41047                  20728547.1024
        27.0004         30.2504
  22856437.4064    4549471.63646   3469343.86246                  22856446.5044
        17.0004         16.7504
  23663819.6884    4976174.31145   3798772.38045                  23663830.6604
         8.5004          9.0004
  22542168.3674    3610509.74747   2744798.57546                  22542175.2384
        21.5004         19.5004
  21212269.2974     362899.99547    269562.13847                  21212276.1914
        27.5004         27.5004
  22561178.7814   -1883982.12046  -1428883.34946                  22561186.0394
        18.0004         18.0004
 02  7 15 19 12 30.0000000  0  8G 3G 9G14G15G17G18G21G31
  22201675.3594    2266627.78647   1732324.17246                  22201683.2034
        22.0004         22.5004
  23655207.2194    -106311.96446     67209.98246                  23655216.3404
        12.5004         12.7504
  20723987.9924   -3501750.63247  -2674377.61447                  20723994.0394
        27.0004         30.2504
  22864367.0784    4591141.12346   3501813.53046                  22864376.2704
        17.0004         16.7504
  23672354.6484    5021026.73945   3833722.24445                  23672365.9384
         8.2504          9.0004
  22548112.6804    3641746.43647   2769138.82746                  22548119.8204
        21.5004         19.5004
  21213068.1024     367096.89247    272832.44147                  21213074.9224
        27.7504         27.7504
  22559415.4064   -1893249.73246  -1436104.86046                  22559423.0864
        18.2504         18.2504
 02  7 15 19 12 45.0000000  0  8G 3G 9G14G15G17G18G21G31
  22206416.5784    2291540.39047   1751736.56646                  22206424.1414
        22.2504         22.7504
  23656414.7274     -99962.82946     72157.36246                  23656424.0234
        12.0004         13.0004
  20719458.6884   -3525552.00547  -2692924.11847                  20719464.6764
        26.7504         30.5004
  22872307.9844    4632873.39246   3534332.11846                  22872317.2814
        16.5004         16.2504
  23680900.4064    5065933.60745   3868714.48645                  23680911.1684
         8.0004          8.5004
  22554061.2274    3673006.48547   2793497.27946                  22554068.2854
        21.2504         19.2504
  21213873.9844     371331.82748    276132.38947                  21213880.7344
        28.0004         27.7504
  22557678.7584   -1902376.39646  -1443216.53346                  22557686.1094
        18.2504         17.7504
 02  7 15 19 13  0.0000000  0  8G 3G 9G14G15G17G18G21G31
  22211177.2424    2316557.72247   1771230.55846                  22211184.9574
        22.2504         22.5004
  23657650.6884     -93470.10745     77216.62346                  23657660.0314
        11.7504         12.7504
  20714953.4614   -3549228.48347  -2711373.30747                  20714959.4844
        27.0004         30.2504
  22880261.1174    4674667.71646   3566899.05646                  22880270.3324
        16.7504         16.2504
  23689455.5314    5110894.13645   3903748.58745                  23689467.2424
         7.7504          9.0004
  22560014.1564    3704289.11647   2817873.33246                  22560020.9064
        21.2504         19.0004
  21214686.7584     375604.21547    279461.52447                  21214693.5204
        27.7504         27.5004
  22555968.5394   -1911362.73246  -1450218.86846                  22555976.0664
        18.5004         17.7504
 02  7 15 19 13 15.0000000  0  8G 3G 9G14G15G17G18G21G31
  22215957.5634    2341678.22047   1790804.94646                  22215965.3594
        22.5004         22.5004
  23658913.1024     -86835.07845     82386.79046                  23658922.1174
        11.7504         12.0004
  20710471.3674   -3572781.45147  -2729726.25247                  20710477.2854
        27.0004         30.2504
  22888225.9224    4716522.51746   3599513.12946                  22888235.2304
        16.5004         16.5004
  23698021.2734    5155906.78645   3938823.27245                  23698033.8984
         7.7504          9.2504
  22565971.0394    3735593.07447   2842266.00646                  22565977.7424
        20.7504         19.0004
  21215506.6094     379912.73347    282818.81247                  21215513.3244
        27.7504         27.5004
  22554285.2814   -1920210.09046  -1457112.91046                  22554293.1724
        18.5004         17.7504
 02  7 15 19 13 30.0000000  0  8G 3G 9G14G15G17G18G21G31
  22220757.1174    2366901.53747   1810459.45046                  22220764.7154
        22.2504         22.5004
  23660203.0554     -80057.75145     87667.80646                  23660213.0434
        11.7504         12.2504
  20706012.8834   -3596210.78447  -2747982.85847                  20706018.7664
        27.2504         30.2504
  22896202.3134    4758437.59246   3632174.15646                  22896211.4804
        16.5004         16.2504
  23706596.7114    5200971.52745   3973938.56045                  23706610.7074
         8.0004          9.0004
  22571931.8054    3766918.12047   2866675.10746                  22571939.0274
        20.5004         18.7504
  21216333.5864     384257.27748    286204.16947                  21216340.2304
        28.0004         27.5004
  22552628.0944   -1928918.35846  -1463898.58246                  22552635.6094
        18.5004         17.7504
 02  7 15 19 13 45.0000000  0  8G 3G 9G14G15G17G18G21G31
  22225576.0704    2392224.12447   1830191.30846                  22225583.7624
        22.2504         22.5004
  23661519.5554     -73141.35046     93057.22046                  23661528.8874
        12.5004         12.5004
  20701577.4694   -3619519.77847  -2766145.69047                  20701583.3524
        27.2504         30.2504
  22904189.4144    4800409.66446   3664879.61746                  22904198.4064
        16.5004         16.2504
  23715181.8444    5246084.84745   4009091.69045                  23715193.9654
         8.2504          9.0004
  22577896.5704    3798260.91947   2891098.04146                  22577903.3914
        20.7504         19.0004
  21217166.5784     388634.76248    289615.19747                  21217173.3634
        28.2504         27.7504
  22550996.8284   -1937490.93246  -1470578.50246                  22551004.5084
        18.5004         18.2504
 02  7 15 19 14  0.0000000  0  8G 3G 9G14G15G17G18G21G31
  22230414.8914    2417651.83547   1850005.08046                  22230422.6054
        22.2504         22.2504
  23662863.2584     -66079.73846     98559.78446                  23662871.9694
        12.5004         12.7504
  20697166.0784   -3642702.09447  -2784209.81947                  20697171.9614
        27.5004         30.2504
  22912188.9454    4842444.91446   3697634.29046                  22912198.1844
        16.7504         16.2504
  23723777.6724    5291252.76645   4044287.37845                  23723789.3244
         8.5004          9.7504
  22583865.4224    3829627.68247   2915539.65146                  22583872.3284
        20.7504         18.7504
  21218007.0314     393051.19348    293056.56747                  21218013.7234
        28.0004         27.7504
  22549392.5704   -1945921.45246  -1477147.74046                  22549400.0274
        18.5004         18.0004
 02  7 15 19 14 15.0000000  0  8G 3G 9G14G15G17G18G21G31
  22235273.2584    2443181.34647   1869898.18446                  22235280.8914
        22.7504         22.5004
  23664233.9534     -58876.04246    104173.07946                  23664243.2154
        12.7504         12.7504
  20692778.1334   -3665760.66947  -2802177.52247                  20692783.8984
        27.5004         30.2504
  22920199.2974    4884540.14546   3730435.70146                  22920208.4884
        16.7504         16.2504
  23732382.1414    5336472.27545   4079523.27645                  23732394.0744
         8.5004          9.5004
  22589838.1094    3861015.21047   2939997.43446                  22589844.8484
        20.5004         18.7504
  21218854.2734     397503.46748    296525.87347                  21218861.1454
        28.2504         27.7504
  22547815.1094   -1954213.11746  -1483608.77146                  22547823.0704
        19.0004         18.0004
 02  7 15 19 14 30.0000000  0  8G 3G 9G14G15G17G18G21G31
  22240150.4064    2468810.27347   1889868.74446                  22240158.0744
        23.0004         22.5004
  23665631.7274     -51532.25746    109895.47446                  23665640.8594
        13.0004         12.7504
  20688413.3284   -3688697.45247  -2820050.32347                  20688419.1524
        27.2504         30.2504
  22928220.7194    4926693.00546   3763282.02846                  22928230.4264
        16.5004         15.7504
  23740996.0554    5381740.95945   4114797.47645                  23741007.4384
         8.5004          9.5004
  22595814.7194    3892421.48147   2964469.83046                  22595821.5514
        21.0004         18.5004
  21219707.8674     401989.69048    300021.62847                  21219714.6294
        28.0004         27.7504
  22546263.1174   -1962367.84746  -1489963.10546                  22546270.5634
        18.7504         18.2504
 02  7 15 19 14 45.0000000  0  8G 3G 9G14G15G17G18G21G31
  22245046.1884    2494537.56247   1909915.95546                  22245054.1604
        23.0004         22.5004
  23667055.7344     -44049.34046    115726.35046                  23667064.1764
        13.2504         13.0004
  20684071.4614   -3711513.24547  -2837828.84147                  20684077.3674
        27.0004         30.0004
  22936252.8594    4968902.51546   3796172.47846                  22936262.2624
        16.7504         15.7504
  23749620.3364    5427057.88145   4150109.28245                  23749632.7034
         8.7504          9.5004
  22601794.5474    3923845.44547   2988956.00946                  22601801.2734
        21.0004         18.7504
  21220567.9694     406509.01148    303543.17347                  21220574.7194
        28.2504         28.0004
  22544736.5704   -1970386.42246  -1496211.34446                  22544744.0274
        18.2504         18.0004
 02  7 15 19 15  0.0000000  0  8G 3G 9G14G15G17G18G21G31
  22249960.9534    2520365.19447   1930041.35446                  22249968.8204
        23.0004         22.5004
  23668506.4774     -36424.96346    121667.43246                  23668515.5514
        12.7504         12.7504
  20679753.2894   -3734205.71847  -2855511.27347                  20679759.1134
        27.2504         30.0004
  22944296.6884    5011170.85846   3829108.79346                  22944305.7274
        16.5004         15.7504
  23758253.6884    5472425.30845   4185460.41445                  23758265.5394
         9.0004         10.0004
  22607777.9224    3955289.40247   3013457.76446                  22607784.7194
        21.0004         18.7504
  21221434.9844     411063.52448    307092.14047                  21221441.6414
        28.7504         27.7504
  22543237.0234   -1978266.73846  -1502351.84246                  22543244.2464
        18.2504         18.0004
 02  7 15 19 15 15.0000000  0  8G 3G 9G14G15G17G18G21G31
  22254894.1884    2546288.99447   1950241.69046                  22254902.1024
        23.0004         22.5004
  23669983.4694     -28663.12846    127715.62346                  23669991.8404
        12.7504         12.5004
  20675458.0004   -3756778.65647  -2873100.55547                  20675463.7664
        27.5004         30.2504
  22952350.4774    5053494.01446   3862087.80846                  22952359.6914
        16.5004         15.7504
  23766895.2274    5517839.02845   4220847.61645                  23766908.3554
         9.2504         10.0004
  22613764.6804    3986749.40647   3037972.02846                  22613771.3484
        20.7504         18.5004
  21222307.3444     415649.37448    310665.52747                  21222313.9774
        28.5004         27.7504
  22541763.4774   -1986012.55546  -1508387.54646                  22541771.0164
        18.5004         18.0004
 02  7 15 19 15 30.0000000  0  8G 3G 9G14G15G17G18G21G31
  22259845.6724    2572309.41947   1970517.32046                  22259853.6564
        22.7504         22.5004
  23671486.6024     -20763.07046    133871.51846                  23671495.8054
        13.0004         12.2504
  20671185.1644   -3779231.22147  -2890596.04547                  20671190.8014
        27.5004         30.2504
  22960414.6644    5095872.62746   3895110.03946                  22960423.7274
        16.2504         16.0004
  23775546.6094    5563299.89545   4256271.58045                  23775558.0274
         9.5004         10.2504
  22619754.7034    4018226.01747   3062499.22746                  22619761.3714
        20.7504         18.7504
  21223186.1804     420267.13948    314263.78647                  21223192.8244
        28.5004         27.7504
  22540315.2894   -1993623.18046  -1514317.90446                  22540323.0274
        18.7504         18.2504
 02  7 15 19 15 45.0000000  0  8G 3G 9G14G15G17G18G21G31
  22264815.2734    2598424.95247   1990867.06046                  22264823.2934
        22.5004         22.7504
  23673016.1414     -12726.07546    140134.13146                  23673025.8014
        13.2504         12.7504
  20666935.3594   -3801564.61947  -2907998.67347                  20666941.0314
        27.5004         30.2504
  22968489.6094    5138305.21346   3928174.32446                  22968499.1054
        16.2504         15.5004
  23784206.3054    5608806.19445   4291730.94045                  23784218.0514
         9.2504         10.5004
  22625747.2584    4049717.94547   3087038.36946                  22625753.7734
        20.7504         18.7504
  21224070.6174     424915.56648    317885.93547                  21224077.4494
        28.2504         27.7504
  22538892.3284   -2001099.78446  -1520143.82946                  22538899.8914
        18.5004         17.7504
 02  7 15 19 16  0.0000000  0  8G 3G 9G14G15G17G18G21G31
  22269802.5634    2624634.01147   2011289.67346                  22269810.7814
        22.2504         22.2504
  23674571.9844      -4553.40646    146502.44446                  23674581.4694
        13.0004         12.5004
  20662707.7584   -3823780.05547  -2925309.38447                  20662713.3714
        27.2504         30.2504
  22976574.1954    5180790.48046   3961279.65846                  22976583.3284
        16.2504         15.5004
  23792874.3134    5654356.77145   4327224.78945                  23792886.2934
         9.5004          9.7504
  22631742.8134    4081223.96547   3111588.48246                  22631749.4104
        21.0004         18.2504
  21224960.8594     429593.69348    321531.22047                  21224967.5164
        28.2504         27.5004
  22537494.9304   -2008443.65546  -1525866.32146                  22537501.8954
        19.0004         18.0004
 02  7 15 19 16 15.0000000  0  7G 3G 9G14G17G18G21G31
  22274807.7344    2650935.76447   2031784.52046                  22274815.5664
        22.5004         22.2504
  23676152.5084       3754.43146    152976.08746                  23676162.1564
        12.7504         12.5004
  20658502.7274   -3845877.96547  -2942528.51247                  20658508.2584
        27.7504         30.2504
  23801550.3524    5699951.00545   4362752.67145                  23801562.8834
         9.7504         10.5004
  22637741.0394    4112743.47147   3136149.11346                  22637747.7074
        21.2504         18.2504
  21225856.6484     434300.80948    325199.09947                  21225863.1884
        28.2504         27.5004
  22536122.7734   -2015655.29346  -1531485.78046                  22536129.2074
        18.7504         17.7504
 02  7 15 19 16 30.0000000  0  8G 3G 9G14G15G17G18G21G31
  22279830.0234    2677328.50747   2052350.25946                  22279837.8794
        22.0004         22.2504
  23677758.6564      12195.94246    159553.90245                  23677767.5554
        12.2504         11.7504
  20654319.7974   -3867859.67347  -2959657.09947                  20654325.4574
        27.7504         30.2504
  22992772.9924      14198.54656
        16.7504
  23810234.8594    5745587.14245   4398313.18945                  23810245.8444
         9.7504         11.0004
  22643741.1644    4144274.94747   3160719.05846                  22643747.9844
        21.7504         19.0004
  21226757.7584     439035.53148    328888.49547                  21226764.4144
        28.0004         27.5004
  22534775.3444   -2022736.12746  -1537003.30746                  22534782.5204
        18.5004         17.7504
 02  7 15 19 16 45.0000000  0  8G 3G 9G14G15G17G18G21G31
  22284869.4844    2703811.47047   2072986.30946                  22284877.7034
        21.7504         22.2504
  23679390.3284      20770.55146    166235.42945                  23679400.1294
        12.2504         11.7504
  20650159.2424   -3889725.65548  -2976695.50947                  20650164.6564
        28.0004         30.2504
  23000886.8204      56836.30046
        16.5004
  23818927.3914    5791264.62445   4433905.94845                  23818938.2464
        10.0004         10.5004
  22649743.7424    4175817.81347   3185297.88946                  22649750.5274
        22.2504         19.0004
  21227663.8674     443797.27548    332598.93947                  21227670.5704
        28.2504         28.0004
  22533452.3284   -2029686.68946  -1542419.33746                  22533459.2814
        18.7504         18.0004
 02  7 15 19 17  0.0000000  0  8G 3G 9G14G15G17G18G21G31
  22289926.3204    2730384.74947   2093692.71746                  22289934.3524
        21.7504         22.0004
  23681047.3594      29478.53146    173020.88246                  23681056.6914
        12.2504         12.2504
  20646020.1484   -3911475.35847  -2993643.31547                  20646025.4694
        27.7504         30.2504
  23009010.3204      99524.18546        -2.86456                  23009019.3014
        17.0004         15.2504
  23827627.6954    5836983.70945   4469531.11945                  23827639.6994
        10.2504         10.2504
  22655748.3594    4207372.45747   3209885.90246                  22655755.2194
        22.2504         19.2504
  21228575.3364     448586.47648    336330.77847                  21228582.0044
        28.2504         27.5004
  22532154.7584   -2036506.65246  -1547733.58946                  22532161.9694
        18.5004         17.7504
 02  7 15 19 17 15.0000000  0  8G 3G 9G14G15G17G18G21G31
  22294999.0084    2757042.12847   2114464.67146                  22295006.9694
        21.7504         22.2504
  23682729.0084      38313.88146    179905.55946                  23682738.2234
        12.5004         12.2504
  20641902.4454   -3933114.64448  -3010505.07447                  20641907.9654
        28.0004         30.5004
  23017141.8674     142256.11146     33294.68046                  23017151.5274
        16.7504         15.7504
  23836334.2424    5882738.26445   4505183.91345                  23836346.7034
        10.0004         10.2504
  22661753.8284    4238932.82447   3234478.37746                  22661760.5434
        22.2504         19.0004
  21229490.6414     453397.17248    340079.36547                  21229497.4384
        28.0004         27.5004
  22530881.0864   -2043201.78846  -1552950.56746                  22530888.0044
        19.0004         18.0004
 02  7 15 19 17 30.0000000  0  8G 3G 9G14G15G17G18G21G31
  22300088.8134    2783787.86347   2135305.46846                  22300096.8204
        22.0004         22.0004
  23684435.3054      47281.33746    186893.19745                  23684444.2854
        12.5004         11.7504
  20637806.4304   -3954638.87748  -3027277.18847                  20637811.9614
        28.0004         30.2504
  23025282.7664     185036.50046     66629.97746                  23025292.0514
        16.5004         15.7504
  23845049.2344    5928532.80245   4540867.87445                  23845061.0274
        10.0004          9.7504
  22667761.9144    4270503.54747   3259078.91946                  22667768.6884
        22.7504         19.2504
  21230410.7974     458234.08647    343848.37947                  21230417.5944
        27.7504         27.5004
  22529631.7664   -2049767.61046  -1558066.79146                  22529638.8954
        19.5004         18.0004
 02  7 15 19 17 45.0000000  0  8G 3G 9G14G15G17G18G21G31
  22305194.5704    2810617.88747   2156211.94646                  22305202.5314
        22.2504         22.0004
  23686166.1644      56377.08546    193980.80846                  23686175.3324
        13.0004         12.5004
  20633731.6414   -3976051.69848  -3043962.48847                  20633737.0434
        28.0004         30.2504
  23033431.8754     227861.45346    100000.01746                  23033441.3594
        16.5004         15.2504
  23853770.3054    5974363.44245   4576579.97345                  23853783.4104
         9.5004         10.2504
  22673771.3204    4302080.76547   3283684.52646                  22673778.0124
        23.0004         19.0004
  21231335.8444     463093.29548    347634.77147                  21231342.5824
        28.5004         27.7504
  22528406.1254   -2056207.78446  -1563085.11646                  22528413.4064
        19.2504         18.2504
 02  7 15 19 18  0.0000000  0  8G 3G 9G14G15G17G18G21G31
  22310316.1094    2837531.77347   2177183.76646                  22310323.8014
        22.2504         21.7504
  23687921.0704      65600.88446    201168.19046                  23687930.4614
        12.2504         12.2504
  20629678.2734   -3997353.31448  -3060561.13447                  20629683.6764
        28.0004         30.5004
  23041590.0784     270730.61946    133404.49046                  23041599.8914
        17.0004         15.5004
  23862498.4384    6020229.90445   4612319.98345                  23862510.8284
         9.7504         10.2504
  22679781.2424    4333664.28447   3308295.03446                  22679787.6764
        23.2504         19.0004
  21232265.0004     467974.56248    351438.34947                  21232271.4694
        28.5004         27.7504
  22527204.4454   -2062522.58346  -1568005.72846                  22527211.8324
        19.5004         18.5004
 02  7 15 19 18 15.0000000  0  8G 3G 9G14G15G17G18G21G31
  22315453.8984    2864529.24547   2198220.73046                  22315461.6954
        22.2504         21.7504
  23689700.7194      74952.73646    208455.34046                  23689710.2154
        12.7504         12.0004
  20625645.7274   -4018543.66348  -3077073.07847                  20625651.0474
        28.2504         30.2504
  23049755.9304     313643.94346    166843.38646                  23049765.4844
        16.5004         15.5004
  23871233.5634    6066131.91345   4648087.68045                  23871245.2624
         9.7504         10.0004
  22685792.5944    4365253.95347   3332910.34746                  22685798.7934
        23.0004         18.7504
  21233197.9534     472877.99948    355259.20247                  21233204.3984
        28.7504         27.7504
  22526026.4534   -2068711.97446  -1572828.63046                  22526033.8874
        19.0004         18.5004
 02  7 15 19 18 30.0000000  0  8G 3G 9G14G15G17G18G21G31
  22320606.4614    2891606.81347   2219320.10646                  22320614.2814
        22.2504         22.0004
  23691504.3444      84429.27646    215839.66246                  23691512.9844
        13.0004         12.2504
  20621633.9534   -4039625.76748  -3093500.67547                  20621639.2384
        28.2504         30.7504
  23057930.2584     356598.19346    200314.16546                  23057939.9064
        16.7504         15.5004
  23879974.8204    6112066.18945   4683880.50045                  23879986.6134
         9.5004         10.0004
  22691804.1024    4396846.59147   3357527.96146                  22691810.4184
        22.5004         18.7504
  21234134.4614     477800.38248    359094.81747                  21234141.1294
        28.2504         28.0004
  22524871.6024   -2074779.15046  -1577556.29746                  22524879.3054
        18.7504         18.2504
 02  7 15 19 18 45.0000000  0  8G 3G 9G14G15G17G18G21G31
  22325774.1484    2918765.10647   2240482.37546                  22325782.0164
        22.0004         21.5004
  23693332.1954      94031.42046    223321.87246                  23693340.6374
        13.2504         12.0004
  20617643.0314   -4060598.66748  -3109843.17547                  20617648.4344
        28.2504         30.5004
  23066112.3204     399594.00246    233817.33246                  23066122.1564
        16.7504         15.0004
  23888722.1024    6158033.55145   4719699.14945                  23888733.2854
         9.2504          9.5004
  22697816.8984    4428442.96947   3382148.49346                  22697823.4024
        22.2504         18.5004
  21235075.1254     482742.34348    362945.68647                  21235081.9844
        28.2504         28.2504
  22523740.3204   -2080723.20246  -1582188.02146                  22523748.4694
        19.2504         18.5004
 02  7 15 19 19  0.0000000  0  8G 3G 9G14G15G17G18G21G31
  22330957.5164    2946003.68047   2261707.20246                  22330965.5704
        22.0004         22.0004
  23695182.7814     103759.02346    230901.81346                  23695191.0704
        12.7504         12.0004
  20613672.7664   -4081462.51448  -3126100.70947                  20613678.0984
        28.7504         30.5004
  23074301.7734     442631.21146    267352.75146                  23074311.0594
        16.7504         15.2504
  23897475.4844    6204033.76545   4755543.36745                  23897485.9884
         8.7504          9.7504
  22703830.3524    4460042.96647   3406771.84146                  22703836.9494
        22.0004         18.7504
  21236019.2504     487703.88748    366811.81547                  21236026.2274
        28.7504         28.2504
  22522632.4774   -2086544.31246  -1586723.94346                  22522640.2384
        19.0004         18.7504
 02  7 15 19 19 15.0000000  0  8G 3G 9G14G15G17G18G21G31
  22336155.8914    2973319.74147   2282992.41146                  22336163.7344
        22.0004         21.5004
  23697057.1254     113609.54446    238577.54446                  23697065.8594
        12.2504         12.0004
  20609722.6564   -4102219.68448  -3142275.10747                  20609727.9304
        28.5004         30.7504
  23082498.7034     485707.21546    300918.40246                  23082507.7544
        16.5004         15.5004
  23906235.0084    6250064.07845   4791411.03045                  23906247.3524
         8.7504          9.2504
  22709843.5314    4491644.02747   3431396.01846                  22709850.4384
        22.0004         18.5004
  21236966.9144     492682.62748    370691.34447                  21236973.6294
        29.0004         28.0004
  22521548.2814   -2092244.94846  -1591165.99546                  22521555.9734
        19.5004         18.5004
 02  7 15 19 19 30.0000000  0  8G 3G 9G14G15G17G18G21G31
  22341368.5314    3000712.66447   2304337.51846                  22341376.5164
        22.0004         21.5004
  23698954.4614     123582.61146    246348.76645                  23698963.1024
        12.2504         11.7504
  20605792.9614   -4122870.45548  -3158366.60247                  20605798.2234
        28.2504         30.5004
  23090703.5084     528821.52446    334513.89946                  23090713.5084
        16.2504         15.2504
  23915000.3524    6296123.99545   4827301.79945                  23915012.5904
         8.0004          9.0004
  22715857.4144    4523245.71047   3456020.68346                  22715864.1764
        21.7504         18.2504
  21237917.1174     497678.23348    374584.01247                  21237923.7384
        29.0004         28.2504
  22520486.4924   -2097825.41846  -1595514.41646                  22520493.9024
        19.5004         18.7504
 02  7 15 19 19 45.0000000  0  7G 3G 9G14G15G18G21G31
  22346595.5554    3028181.43447   2325741.71946                  22346603.5514
        21.7504         21.5004
  23700876.1254     133677.49746    254214.92546                  23700884.4264
        12.2504         12.0004
  20601883.4224   -4143415.41948  -3174375.65247                  20601888.8364
        28.2504         30.2504
  23098914.6484     571973.24646    368138.55646                  23098924.7074
        16.0004         14.7504
  22721871.0634    4554847.28647   3480645.26746                  22721877.9574
        21.5004         18.2504
  21238871.0474     502690.00148    378489.28247                  21238877.6684
        29.0004         28.2504
  22519447.1174   -2103286.48346  -1599769.78746                  22519454.4104
        19.7504         18.7504
 02  7 15 19 20  0.0000000  0  7G 3G 9G14G15G18G21G31
  22351837.1024    3055726.75947   2347205.56946                  22351845.1914
        21.5004         21.5004
  23702820.2974     143895.05446    262176.65346                  23702829.1374
        12.5004         12.0004
  20597994.0084   -4163853.62648  -3190301.51147                  20597999.3164
        28.2504         30.5004
  23107133.2424     615163.21246    401792.99646                  23107143.1484
        15.7504         15.0004
  22727884.8054    4586449.69247   3505270.49946                  22727891.7934
        21.5004         18.2504
  21239828.0474     507718.89548    382407.89947                  21239834.6564
        29.2504         28.2504
  22518431.2344   -2108627.22747  -1603931.39746                  22518438.6804
        20.0004         18.7504
 02  7 15 19 20 15.0000000  0  7G 3G 9G14G15G18G21G31
  22357093.7194    3083350.02947   2368730.16546                  22357101.9494
        21.5004         21.5004
  23704787.9694     154236.87746    270235.19146                  23704796.5514
        12.2504         12.5004
  20594125.2974   -4184183.22248  -3206142.73647                  20594130.7584
        28.0004         30.2504
  23115359.8364     658392.94246    435478.43746                  23115369.6724
        15.5004         14.7504
  22733898.9224    4618054.50547   3529897.60846                  22733905.6844
        21.0004         18.0004
  21240788.5634     512766.72348    386341.26747                  21240795.1604
        29.2504         28.0004
  22517438.0944   -2113846.01347  -1607997.98746                  22517445.4694
        20.2504         19.0004
 02  7 15 19 20 30.0000000  0  7G 3G 9G14G15G18G21G31
  22362363.6024    3111044.45547   2390310.19846                  22362371.8674
        21.0004         21.2504
  23706778.5474     164696.53646    278385.58746                  23706787.8094
        12.2504         12.0004
  20590276.2504   -4204410.67848  -3221904.37947                  20590281.4884
        28.2504         30.5004
  23123592.4844     701655.89946    469189.76346                  23123602.1804
        15.0004         14.7504
  22739912.1254    4649655.35547   3554521.63046                  22739918.9454
        20.2504         18.0004
  21241751.3524     517826.91648    390284.26947                  21241757.9144
        29.2504         28.0004
  22516466.7194   -2118949.21347  -1611974.50446                  22516474.2704
        20.5004         19.0004
 02  7 15 19 20 45.0000000  0  7G 3G 9G14G15G18G21G31
  22367647.2424    3138810.62647   2411946.14146                  22367655.6604
        20.7504         21.2504
  23708791.3834     175274.85846    286628.42846                  23708800.7854
        12.2504         12.2504
  20586447.0634   -4224535.11048  -3237585.73047                  20586452.2894
        28.5004         30.5004
  23131832.1334     744952.85346    502927.57346                  23131841.6524
        15.5004         15.2504
  22745925.1644    4681253.02547   3579143.16746                  22745932.2704
        20.5004         17.7504
  21242716.8984     522900.26948    394237.53047                  21242723.4614
        29.0004         28.2504
  22515517.6954   -2123936.05447  -1615860.35446                  22515524.9184
        20.0004         18.7504
 02  7 15 19 21  0.0000000  0  7G 3G 9G14G15G18G21G31
  22372944.5474    3166646.88347   2433636.69646                  22372952.7074
        21.0004         21.5004
  23710826.7504     185970.50546    294962.70546                  23710835.8134
        12.2504         12.2504
  20582636.7034   -4244557.66748  -3253187.70747                  20582641.8594
        28.5004         30.5004
  23140076.8444     788282.37946    536690.77046                  23140086.4224
        15.0004         14.7504
  22751937.1484    4712846.18647   3603761.19246                  22751944.6294
        20.5004         17.7504
  21243684.5004     527985.53448    398200.06447                  21243691.1094
        29.2504         28.5004
  22514590.9144   -2128807.81247  -1619656.52346                  22514598.1844
        20.2504         19.0004
 02  7 15 19 21 15.0000000  0  7G 3G 9G14G15G18G21G31
  22378255.1254    3194553.31447   2455381.93546                  22378263.2384
        21.2504         21.2504
  23712884.5314     196783.86346    303388.69746                  23712893.2894
        12.7504         12.0004
  20578845.9224   -4264477.85848  -3268709.92447                  20578851.0664
        28.5004         30.5004
  23148329.0634     831644.81846    570479.62846                  23148338.4184
        15.5004         14.5004
  22757948.5394    4744435.17947   3628375.96946                  22757955.7274
        20.5004         17.7504
  21244654.8984     533083.29748    402172.34347                  21244661.5904
        30.0004         28.5004
  22513685.7734   -2133563.89347  -1623362.56846                  22513693.1954
        20.2504         19.0004
 02  7 15 19 21 30.0000000  0  7G 3G 9G14G15G18G21G31
  22383579.5164    3222532.62347   2477183.95746                  22383587.6994
        21.0004         21.2504
  23714965.2424     207717.74146    311908.58045                  23714973.7894
        12.5004         11.7504
  20575075.2034   -4284292.73848  -3284150.07047                  20575080.3364
        28.2504         30.2504
  23156587.4144     875042.86646    604296.22146                  23156597.4844
        15.2504         14.7504
  22763959.3914    4776022.81547   3652989.69746                  22763966.0004
        20.2504         17.7504
  21245627.7664     538196.39648    406156.57547                  21245634.4574
        30.2504         28.5004
  22512803.1414   -2138201.60047  -1626976.35446                  22512811.1134
        20.0004         19.2504
 02  7 15 19 21 45.0000000  0  7G 3G 9G14G15G18G21G31
  22388917.7194    3250583.30547   2499041.59946                  22388925.9614
        21.2504         20.7504
  23717068.6644     218770.87646    320521.42146                  23717077.9144
        12.7504         12.0004
  20571324.4614   -4304003.46948  -3299509.06547                  20571329.5124
        28.2504         30.2504
  23164852.3594     918475.16746    638139.50146                  23164861.9144
        15.0004         14.5004
  22769969.7424    4807607.90547   3677601.43446                  22769976.6844
        20.5004         17.5004
  21246603.6334     543323.48348    410151.69747                  21246610.0314
        30.2504         28.5004
  22511942.8914   -2142722.13247  -1630498.85546                  22511950.9224
        20.2504         19.5004
 02  7 15 19 22  0.0000000  0  7G 3G 9G14G15G18G21G31
  22394268.7034    3278701.70347   2520952.00046                  22394276.9224
        21.5004         21.0004
  23719194.1484     229939.80546    329224.47546                  23719202.6724
        12.7504         12.0004
  20567592.7664   -4323613.46948  -3314789.57847                  20567597.8634
        28.2504         30.5004
  23173123.1804     961938.28646    672006.80246                  23173133.0984
        15.0004         14.5004
  22775979.2424    4839187.10547   3702208.58746                  22775986.3594
        20.2504         17.7504
  21247581.1484     548461.25048    414155.15247                  21247587.5944
        30.0004         28.5004
  22511104.3594   -2147128.92047  -1633932.72446                  22511111.9924
        20.2504         19.5004
 02  7 15 19 22 15.0000000  0  7G 3G 9G14G15G18G21G31
  22399631.8364    3306886.41547   2542914.07646                  22399639.5744
        21.7504         20.7504
  23721341.3134     241223.44146    338016.90745                  23721349.1684
        13.0004         11.7504
  20563880.2194   -4343123.54148  -3329992.21447                  20563885.4454
        28.2504         30.2504
  23181399.8444    1005430.94746    705897.10746                  23181409.7974
        14.7504         14.0004
  22781987.1724    4870759.22847   3726810.21746                  22781994.0784
        20.2504         17.5004
  21248560.7034     553608.62048    418166.08347                  21248567.1134
        30.0004         28.5004
  22510287.3284   -2151422.98247  -1637278.74246                  22510294.9734
        20.2504         19.2504
 02  7 15 19 22 30.0000000  0  7G 3G 9G14G15G18G21G31
  22405008.1884    3335137.89747   2564928.18946                  22405015.9964
        22.0004         21.0004
  23723510.5704     252622.54146    346899.34745                  23723519.6334
        12.5004         11.7504
  20560186.8204   -4362532.96848  -3345116.42447                  20560192.0354
        28.0004         30.2504
  23189681.9144    1048953.90346    739811.03846                  23189691.3634
        14.5004         14.0004
  22787993.7344    4902324.93446   3751406.85446                  22788000.6644
        19.5004         17.5004
  21249542.1804     558766.41548    422185.13847                  21249548.8014
        29.7504         28.2504
  22509491.4924   -2155603.50847  -1640536.29946                  22509498.8094
        20.0004         19.0004
 02  7 15 19 22 45.0000000  0  7G 3G 9G14G15G18G21G31
  22410396.4144    3363454.73647   2586993.22346                  22410404.1524
        21.7504         20.7504
  23725701.5784     264135.82946    355870.70245                  23725710.3714
        12.2504         11.5004
  20556511.8834   -4381842.86848  -3360163.08647                  20556517.1214
        28.0004         30.2504
  23197969.9304    1092505.73746    773747.45946                  23197979.6024
        14.7504         14.0004
  22793999.0164    4933883.05946   3775997.59246                  22794006.1914
        19.5004         17.5004
  21250525.2814     563933.32248    426211.29347                  21250531.8094
        29.5004         28.2504
  22508717.3284   -2159671.86847  -1643706.45046                  22508724.8324
        20.0004         19.2504
 02  7 15 19 23  0.0000000  0  7G 3G 9G14G15G18G21G31
  22415797.0634    3391835.01647   2609107.69646                  22415804.9534
        21.5004         21.0004
  23727914.3984     275761.82946    364929.93246                  23727923.2624
        12.5004         12.0004
  20552856.1884   -4401054.76848  -3375133.38147                  20552861.4614
        28.0004         30.0004
  23206262.2814    1136084.78946    807705.09246                  23206271.9534
        14.5004         13.7504
  22800002.6724    4965431.97846   3800581.13846                  22800009.5434
        19.2504         17.2504
  21251510.0004     569107.96548    430243.47847                  21251516.4574
        29.7504         28.2504
  22507964.0784   -2163629.63547  -1646790.42246                  22507971.6414
        20.0004         19.2504
 02  7 15 19 23 15.0000000  0  6G 3G 9G14G18G21G31
  22421210.0554    3420279.25147   2631272.00146                  22421217.9454
        21.2504         20.7504
  23730147.3914     287501.00646    374077.33145                  23730156.9454
        12.2504         11.7504
  20549218.9454   -4420167.89547  -3390026.71147                  20549224.2424
        27.7504         30.2504
  22806004.3984    4996972.38546   3825158.06246                  22806011.0554
        19.2504         16.7504
  21252496.3134     574291.16148    434282.32847                  21252502.9924
        29.7504         28.5004
  22507232.2114   -2167476.14247  -1649787.71246                  22507239.5744
        20.0004         19.0004
 02  7 15 19 23 30.0000000  0  7G 3G 9G14G15G18G21G31
  22426634.7424    3448787.24547   2653485.98646                  22426642.3984
        21.0004         20.7504
  23732402.8914     299353.55846    383313.07345                  23732412.2114
        12.0004         11.5004
  20545600.8754   -4439181.98148  -3404842.86947                  20545606.1134
        28.0004         30.0004
  23222864.2814      14544.24056
        14.5004
  22812005.1644    5028504.42446   3849728.45046                  22812011.8324
        19.2504         17.0004
  21253484.2974     579483.02048    438327.92747                  21253490.9884
        29.5004         28.2504
  22506521.9774   -2171211.02047  -1652698.00946                  22506529.4454
        20.5004         19.0004
 02  7 15 19 23 45.0000000  0  7G 3G 9G14G15G18G21G31
  22432071.3754    3477357.92647   2675748.82346                  22432079.5474
        21.0004         21.0004
  23734679.4454     311318.54245    392636.43945                  23734688.5664
        11.5004         11.2504
  20542001.2664   -4458097.81147  -3419582.46947                  20542006.6454
        27.7504         30.0004
  23231172.3984      58205.83746
        14.2504
  22818003.6954    5060027.37446   3874291.77546                  22818010.3284
        19.5004         17.0004
  21254473.8054     584682.71848    442379.63447                  21254480.6134
        29.5004         28.2504
  22505832.0234   -2174835.15147  -1655522.01346                  22505839.3284
        20.2504         19.0004
 02  7 15 19 24  0.0000000  0  7G 3G 9G14G15G18G21G31
  22437519.7504    3505988.94747   2698058.67546                  22437527.7934
        21.0004         20.5004
  23736977.5164     323393.89945    402045.79045                  23736986.6844
        11.5004         11.0004
  20538420.0554   -4476917.37147  -3434247.04947                  20538425.3284
        27.7504         29.7504
  23239485.1484     101892.16346
        14.2504
  22824000.1804    5091539.08046   3898846.32746                  22824006.9884
        19.5004         17.2504
  21255464.2814     589888.29248    446435.92047                  21255470.9144
        29.0004         27.7504
  22505163.4224   -2178350.75247  -1658261.44846                  22505170.6214
        20.5004         19.2504
 02  7 15 19 24 15.0000000  0  7G 3G 9G14G15G18G21G31
  22442979.6724    3534680.29247   2720415.53046                  22442987.7384
        20.5004         20.5004
  23739296.4614     335579.89646    411541.36845                  23739305.2304
        12.2504         11.7504
  20534856.7894   -4495640.25047  -3448836.29347                  20534862.0164
        27.5004         29.7504
  23247804.0944     145603.38046     31788.08756                  23247813.8364
        13.7504         13.7504
  22829994.5004    5123039.71246   3923392.25746                  22830001.2034
        19.2504         16.7504
  21256455.9454     595099.98848    450496.97547                  21256462.7074
        28.5004         27.5004
  22504515.0704   -2181757.46447  -1660916.03746                  22504521.9144
        20.5004         19.0004
 02  7 15 19 24 30.0000000  0  7G 3G 9G14G15G18G21G31
  22448452.4064    3563439.26947   2742825.08246                  22448460.4614
        21.0004         20.7504
  23741638.1804     347884.03046    421129.01045                  23741647.0434
        12.0004         11.5004
  20531313.8594   -4514258.84847  -3463344.27847                  20531319.1454
        27.5004         29.7504
  23256127.7894     189347.01046     65873.95946                  23256138.1884
        14.0004         13.7504
  22835988.4304    5154537.00246   3947935.57846                  22835995.3014
        19.0004         16.7504
  21257450.4224     600325.41848    454568.73347                  21257457.0084
        28.7504         27.5004
  22503888.4844   -2185047.68747  -1663479.85446                  22503895.4614
        20.0004         19.2504
 02  7 15 19 24 45.0000000  0  7G 3G 9G14G15G18G21G31
  22453937.1804    3592260.83847   2765283.41846                  22453945.2344
        21.0004         20.7504
  23744001.6094     360301.50646    430804.94445                  23744009.7814
        13.0004         11.7504
  20527789.8674   -4532777.73947  -3477774.56847                  20527795.0944
        27.5004         29.5004
  23264457.5004     233118.29246     99981.38646                  23264467.3014
        14.5004         13.7504
  22841980.2114    5186026.12546   3972472.52946                  22841986.6334
        18.7504         16.7504
  21258446.8054     605559.96148    458647.59347                  21258453.2734
        29.5004         27.7504
  22503283.8524   -2188226.24747  -1665956.66146                  22503290.6134
        20.0004         19.0004
 02  7 15 19 25  0.0000000  0  7G 3G 9G14G15G18G21G31
  22459432.9924    3621140.96947   2787787.37446                  22459440.9064
        21.2504         20.7504
  23746385.0394     372828.38346    440566.14945                  23746393.7274
        12.2504         11.5004
  20524284.0784   -4551200.77747  -3492130.16947                  20524289.3634
        27.2504         29.7504
  23272791.4224     276913.27246    134107.27546                  23272801.7504
        14.7504         14.0004
  22847970.4694    5217503.19546   3997000.09246                  22847976.8324
        18.7504         16.7504
  21259443.6644     610799.65648    462730.46847                  21259450.0634
        29.5004         27.5004
  22502699.7344   -2191296.83746  -1668349.33046                  22502706.6524
        19.7504         18.5004
 02  7 15 19 25 15.0000000  0  7G 3G 9G14G15G18G21G31
  22464938.9774    3650075.55047   2810333.76346                  22464946.9494
        21.2504         20.2504
  23748789.4384     385460.85146    450409.62345                  23748797.8094
        12.2504         11.7504
  20520795.8674   -4569531.67247  -3506413.96747                  20520801.2464
        27.5004         29.5004
  23281129.0164     320727.94246    168248.52046                  23281138.5704
        14.5004         13.5004
  22853957.2814    5248964.48046   4021515.35946                  22853963.9734
        19.0004         17.0004
  21260441.1884     616040.79648    466814.46947                  21260447.5864
        29.2504         27.5004
  22502134.9224   -2194263.42846  -1670660.96346                  22502142.1564
        19.7504         18.7504
 02  7 15 19 25 30.0000000  0  7G 3G 9G14G15G18G21G31
  22470456.3914    3679068.86947   2832925.92146                  22470464.1524
        21.5004         20.7504
  23751214.1884     398203.37445    460338.83345                  23751222.6294
        11.7504         11.0004
  20517326.0234   -4587765.83747  -3520622.39647                  20517331.3444
        27.7504         29.7504
  23289471.4144     364566.71346    202408.52546                  23289481.3324
        14.7504         14.0004
  22859942.3594    5280414.42646   4046021.78546                  22859949.0394
        19.2504         17.0004
  21261439.6174     621288.04348    470903.22847                  21261446.1454
        29.2504         27.5004
  22501590.9844   -2197121.44246  -1672888.00746                  22501598.2304
        19.7504         18.7504
 02  7 15 19 25 45.0000000  0  7G 3G 9G14G15G18G21G31
  22475985.3284    3708123.37647   2855565.75646                  22475993.2194
        21.7504         20.7504
  23753659.9064     411058.76845    470356.03445                  23753668.9924
        11.7504         11.2504
  20513875.3054   -4605900.25547  -3534753.10247                  20513880.4964
        27.7504         29.5004
  23297819.1414     408432.38746    236589.47846                  23297829.2464
        14.7504         13.5004
  22865925.4844    5311855.89346   4070521.60446                  22865931.9884
        18.7504         16.5004
  21262439.8914     626544.36348    474999.05247                  21262446.3714
        29.0004         27.5004
  22501068.5634   -2199868.08046  -1675028.24746                  22501075.6914
        19.5004         18.5004
 02  7 15 19 26  0.0000000  0  7G 3G 9G14G15G18G21G31
  22481524.7664    3737233.88047   2878249.23446                  22481532.7274
        21.5004         20.7504
  23756126.4614     424022.01345    480457.25245                  23756135.9924
        11.5004         11.2504
  20510442.4844   -4623939.92947  -3548809.97747                  20510447.5124
        27.7504         29.5004
  23306170.9384     452319.85646    270787.45746                  23306181.0314
        15.0004         13.7504
  22871905.7584    5343283.91346   4095010.94646                  22871912.3554
        18.5004         16.5004
  21263441.0474     631804.57548    479097.91147                  21263447.6454
        29.0004         27.5004
  22500565.9844   -2202508.18046  -1677085.47646                  22500573.3834
        19.5004         18.5004
 02  7 15 19 26 15.0000000  0  7G 3G 9G14G15G18G21G31
  22487075.0004    3766398.73847   2900975.05446                  22487083.2074
        21.5004         21.2504
  23758614.2194     437091.71945    490641.44445                  23758623.4804
        11.2504         11.0004
  20507027.5234   -4641886.19748  -3562794.07147                  20507032.7034
        28.0004         29.5004
  23314525.8834     496227.59746    305001.21146                  23314535.5204
        15.0004         14.2504
  22877883.7814    5374697.13046   4119488.76046                  22877890.2624
        18.7504         16.2504
  21264442.3984     637067.42648    483198.82447                  21264448.9964
        29.0004         27.5004
  22500083.7504   -2205043.29546  -1679060.89746                  22500091.4304
        19.7504         18.5004
 02  7 15 19 26 30.0000000  0  7G 3G 9G14G15G18G21G31
  22492635.6484    3795620.72047   2923745.39046                  22492644.0784
        21.5004         21.0004
  23761121.8674     450270.96745    500910.98245                  23761131.0234
        11.7504         11.0004
  20503630.5234   -4659735.95447  -3576702.96047                  20503635.5984
        27.7504         29.7504
  23322885.4844     540158.63546    339233.10846                  23322895.5554
        14.7504         14.0004
  22883858.9224    5406098.63346   4143957.44146                  22883865.4384
        18.5004         16.7504
  21265445.1254     642336.31848    487304.44847                  21265451.7114
        29.2504         27.5004
  22499621.7194   -2207470.30346  -1680952.08046                  22499629.1294
        19.7504         18.5004
 02  7 15 19 26 45.0000000  0  7G 3G 9G14G15G18G21G31
  22498207.0944    3824899.21147   2946559.76046                  22498215.3484
        21.0004         20.7504
  23763651.1884     463559.21245    511265.47445                  23763660.2504
        11.7504         11.0004
  20500252.1094   -4677489.43947  -3590536.83147                  20500257.1844
        27.7504         29.7504
  23331249.6724     584112.46846    373482.78546                  23331259.8834
        14.7504         13.5004
  22889832.5474    5437487.97046   4168416.63546                  22889838.8874
        19.2504         16.7504
  21266448.7344     647610.76848    491414.40247                  21266455.2034
        29.2504         27.5004
  22499180.5084   -2209789.74346  -1682759.44346                  22499188.1174
        19.7504         18.2504
 02  7 15 19 27  0.0000000  0  7G 3G 9G14G15G18G21G31
  22503789.4454    3854235.67247   2969419.30246                  22503797.5234
        20.7504         20.5004
  23766200.2584     476958.05846    521706.11045                  23766208.2424
        12.0004         11.0004
  20496892.6414   -4695144.85647  -3604294.28847                  20496897.7504
        27.7504         29.5004
  23339618.3524     628090.75346    407751.50746                  23339628.5394
        14.2504         13.7504
  22895803.8204    5468866.88046   4192867.71946                  22895810.7624
        19.2504         17.0004
  21267453.8594     652892.39948    495529.95647                  21267460.2114
        29.5004         27.5004
  22498759.9144   -2211999.77046  -1684481.55046                  22498767.5004
        19.7504         18.5004
 02  7 15 19 27 15.0000000  0  7G 3G 9G14G15G18G21G31
  22509383.4774    3883631.43547   2992325.05146                  22509391.5904
        20.7504         20.5004
  23768771.1414     490469.22146    532234.29345                  23768779.9574
        12.0004         11.2504
  20493552.0394   -4712700.46748  -3617973.97247                  20493557.1254
        28.0004         29.7504
  23347992.4924     672094.98746    442040.45846                  23348003.0554
        14.2504         13.2504
  22901773.3134    5500236.99946   4217311.93446                  22901780.0864
        18.7504         16.7504
  21268460.5554     658183.06048    499652.54347                  21268467.1054
        29.0004         27.5004
  22498360.6024   -2214098.77246  -1686117.14246                  22498367.9654
        19.5004         18.2504
 02  7 15 19 27 30.0000000  0  7G 3G 9G14G15G18G21G31
  22514988.8674    3913089.08047   3015279.01746                  22514996.9344
        20.5004         20.5004
  23771364.2664     504095.54845    542852.21945                  23771372.9064
        11.7504         11.0004
  20490230.4774   -4730153.41947  -3631573.66747                  20490235.7154
        27.5004         29.5004
  23356371.8364     716127.90046    476351.74846                  23356382.0594
        14.2504         13.5004
  22907741.6094    5531601.16546   4241751.51646                  22907748.3594
        18.5004         16.7504
  21269469.6484     663485.73248    503784.48547                  21269476.3404
        28.7504         27.5004
  22497982.5554   -2216083.92446  -1687664.02746                  22497990.0354
        19.5004         18.0004
 02  7 15 19 27 45.0000000  0  7G 3G 9G14G15G18G21G31
  22520605.2344    3942603.15947   3038276.95546                  22520613.1954
        20.2504         20.7504
  23773978.0554     517831.67345    553555.68345                  23773986.0634
        11.5004         11.0004
  20486928.1024   -4747508.79347  -3645097.32047                  20486933.2934
        27.5004         29.5004
  23364755.2034     760184.26046    510681.30746                  23364764.9344
        14.5004         13.5004
  22913707.9144    5562954.28546   4266182.50046                  22913714.6764
        19.0004         17.0004
  21270479.8134     668795.06148    507921.61847                  21270486.5394
        28.5004         27.5004
  22497625.7734   -2217960.40046  -1689126.22746                  22497633.2894
        19.5004         18.5004
 02  7 15 19 28  0.0000000  0  7G 3G 9G14G15G18G21G31
  22526233.2814    3972177.45347   3061321.82146                  22526241.2304
        20.5004         20.7504
  23776614.0004     531681.67745    564347.89745                  23776622.8874
        11.7504         11.0004
  20483644.8204   -4764762.35347  -3658541.64247                  20483649.9654
        27.5004         29.5004
  23373144.5234     804268.06446    545032.26046                  23373155.2034
        14.2504         13.5004
  22919673.1644    5594300.37146   4290607.98746                  22919680.4924
        19.5004         16.7504
  21271492.1724     674115.21648    512067.18947                  21271498.8874
        28.7504         27.5004
  22497289.9844   -2219724.11646  -1690500.56346                  22497297.3714
        19.5004         18.2504
 02  7 15 19 28 15.0000000  0  7G 3G 9G14G15G18G21G31
  22531872.1414    4001808.76747   3084411.11346                  22531880.0314
        21.0004         21.0004
  23779270.4064     545642.45645    575226.42845                  23779279.3404
        11.5004         11.2504
  20480380.2664   -4781917.16847  -3671909.02047                  20480385.0824
        27.5004         29.5004
  23381537.9454     848376.04846    579402.03846                  23381548.0164
        14.5004         12.7504
  22925636.1254    5625636.41046   4315025.65146                  22925643.0784
        19.5004         16.5004
  21272506.1484     679443.33648    516218.96247                  21272512.9104
        29.0004         27.7504
  22496975.0704   -2221378.21346  -1691789.48546                  22496982.2814
        19.7504         18.5004
 02  7 15 19 28 30.0000000  0  7G 3G 9G14G15G18G21G31
  22537521.2194    4031496.23247   3107544.15746                  22537529.3094
        20.5004         20.5004
  23781948.5164     559713.54445    586190.91745                  23781956.4884
        11.7504         11.2504
  20477134.5004   -4798973.56247  -3685199.70247                  20477139.3754
        27.2504         29.2504
  23389936.4064     892507.77146    613790.32946                  23389946.1374
        14.2504         13.2504
  22931597.0554    5656961.98946   4339435.17146                  22931604.3134
        19.2504         16.7504
  21273521.5164     684779.01648    520376.62947                  21273528.0554
        29.5004         28.0004
  22496681.0314   -2222923.12346  -1692993.31946                  22496688.7584
        19.7504         18.2504
 02  7 15 19 28 45.0000000  0  7G 3G 9G14G15G18G21G31
  22543182.0164    4061242.70947   3130723.18446                  22543190.3284
        21.0004         20.5004
  23784647.6174     573897.96345    597243.69745                  23784656.1414
        11.7504         11.0004
  20473908.3054   -4815928.44647  -3698411.29147                  20473913.4614
        27.5004         29.5004
  23398338.9144     936666.27546    648199.47946                  23398348.7034
        14.0004         13.2504
  22937556.9144    5688280.23546   4363838.96646                  22937563.9614
        19.5004         16.7504
  21274539.0784     690125.32248    524542.58047                  21274545.5824
        29.5004         27.7504
  22496408.4844   -2224355.71846  -1694109.63646                  22496415.8134
        19.5004         18.5004
 02  7 15 19 29  0.0000000  0  7G 3G 9G14G15G18G21G31
  22548853.0704    4091045.47847   3153946.07846                  22548861.3714
        21.0004         20.7504
  23787367.8364     588193.06645    608382.73645                  23787376.4884
        11.5004         11.0004
  20470700.5944   -4832784.16647  -3711545.60847                  20470705.6684
        27.2504         29.5004
  23406747.3364     980848.88046    682627.39446                  23406757.6054
        14.2504         13.0004
  22943514.9064    5719588.54246   4388235.02846                  22943521.8484
        19.7504         16.5004
  21275558.0634     695479.72848    528714.83747                  21275564.7544
        29.7504         28.0004
  22496156.6414   -2225678.60346  -1695140.46946                  22496164.2154
        19.5004         18.2504
 02  7 15 19 29 15.0000000  0  7G 3G 9G14G15G18G21G31
  22554535.4304    4120906.03047   3177214.00046                  22554543.8364
        20.7504         20.7504
  23790108.9304     602600.75045    619609.50445                  23790118.3674
        11.0004         10.0004
  20467512.2974   -4849538.82647  -3724601.17547                  20467517.3834
        27.2504         29.2504
  23415159.4454    1025057.35646    717075.50146                  23415169.9734
        13.5004         13.0004
  22949470.9774    5750888.86446   4412624.86146                  22949477.6564
        19.7504         16.7504
  21276578.7504     700844.24848    532894.97747                  21276585.3134
        29.2504         27.7504
  22495926.3984   -2226889.94046  -1696084.38146                  22495933.6684
        19.7504         18.5004
 02  7 15 19 29 30.0000000  0  7G 3G 9G14G15G18G21G31
  22560228.1564    4150821.67947   3200524.84346                  22560236.9734
        20.2504         20.5004
  23792872.0554     617118.48745    630922.01745                  23792881.1884
        10.7504         10.7504
  20464342.8524   -4866194.88147  -3737579.91047                  20464348.0554
        27.5004         29.5004
  23423576.7424    1069289.21446    751541.78846                  23423587.1054
        13.5004         12.7504
  22955425.5474    5782178.78846   4437006.59646                  22955432.5474
        19.5004         16.5004
  21277600.9534     706216.65748    537081.26047                  21277607.5514
        29.2504         27.5004
  22495716.4534   -2227992.15346  -1696943.25946                  22495723.6884
        19.5004         18.5004
 02  7 15 19 29 45.0000000  0  7G 3G 9G14G15G18G21G31
  22565931.9224    4180797.20246   3223882.35446                  22565940.3404
        19.7504         20.2504
  23795656.5634     631751.23745    642324.16045                  23795665.4264
        11.0004         10.5004
  20461193.0944   -4882747.23647  -3750477.83947                  20461198.2854
        27.5004         29.5004
  23431999.1644    1113549.36746    786030.15646                  23432009.4804
        13.5004         13.2504
  22961378.2194    5813463.28746   4461384.09346                  22961384.8754
        19.2504         16.7504
  21278625.5784     711601.71948    541277.40547                  21278632.3634
        29.0004         28.0004
  22495528.6804   -2228980.23046  -1697713.20346                  22495535.9614
        19.7504         18.5004
 02  7 15 19 30  0.0000000  0  7G 3G 9G14G15G18G21G31
  22571648.1484    4210833.32447   3247287.07946                  22571656.8364
        20.0004         20.0004
  23798462.2194     646499.90445    653816.62145                  23798472.5124
        10.5004         10.5004
  20458062.8364   -4899194.88847  -3763294.18047                  20458067.9804
        27.2504         29.5004
  23440427.3134    1157838.61346    820541.16946                  23440437.4534
        13.5004         13.0004
  22967330.9534    5844743.38946   4485758.18646                  22967337.7854
        19.7504         16.5004
  21279653.1954     717000.75048    545484.43447                  21279659.9694
        29.7504         28.0004
  22495362.6094   -2229853.22646  -1698393.46946                  22495369.8204
        19.7504         18.7504
